| time (UTC) | temp F | wind direction | speed MPH | gust MPH | rain 1hr in | rain 24hr in | rain mn in | humidity % | barometer mb |
| 20260904184153 | 83 | 257 | 5.0 | 10.0 | 0.00 | 0.00 | 0.00 | 57 | 1019.4 |
| 20260904184111 | 83 | 259 | 5.0 | 10.0 | 0.00 | 0.00 | 0.00 | 57 | 1019.4 |
| 20260904184005 | 83 | 273 | 6.0 | 10.0 | 0.00 | 0.00 | 0.00 | 56 | 1019.5 |
| 20260904183514 | 84 | 248 | 6.0 | 9.0 | 0.00 | 0.00 | 0.00 | 55 | 1019.5 |
| 20260904183501 | 84 | 246 | 6.0 | 9.0 | 0.00 | 0.00 | 0.00 | 55 | 1019.6 |
| 20260904183315 | 84 | 268 | 6.0 | 9.0 | 0.00 | 0.00 | 0.00 | 55 | 1019.4 |
| 20260904183130 | 84 | 285 | 6.0 | 9.0 | 0.00 | 0.00 | 0.00 | 55 | 1019.4 |
| 20260904182724 | 84 | 279 | 7.0 | 9.0 | 0.00 | 0.00 | 0.00 | 54 | 1019.4 |
| 20260904182546 | 85 | 281 | 6.0 | 9.0 | 0.00 | 0.00 | 0.00 | 54 | 1019.4 |
| 20260904182422 | 85 | 248 | 6.0 | 9.0 | 0.00 | 0.00 | 0.00 | 54 | 1019.4 |
| 20260904182359 | 85 | 248 | 6.0 | 9.0 | 0.00 | 0.00 | 0.00 | 53 | 1019.4 |
| 20260904181814 | 85 | 263 | 5.0 | 9.0 | 0.00 | 0.00 | 0.00 | 53 | 1019.4 |
| 20260904181736 | 85 | 254 | 6.0 | 9.0 | 0.00 | 0.00 | 0.00 | 52 | 1019.4 |
| 20260904181622 | 85 | 257 | 7.0 | 9.0 | 0.00 | 0.00 | 0.00 | 52 | 1019.3 |
| 20260904181442 | 85 | 267 | 6.0 | 9.0 | 0.00 | 0.00 | 0.00 | 51 | 1019.3 |
| 20260904181325 | 86 | 265 | 6.0 | 9.0 | 0.00 | 0.00 | 0.00 | 51 | 1019.3 |
| 20260904181254 | 86 | 253 | 6.0 | 9.0 | 0.00 | 0.00 | 0.00 | 51 | 1019.3 |
| 20260904181110 | 86 | 252 | 6.0 | 9.0 | 0.00 | 0.00 | 0.00 | 50 | 1019.3 |
| 20260904180935 | 86 | 252 | 5.0 | 9.0 | 0.00 | 0.00 | 0.00 | 50 | 1019.3 |
| 20260904180859 | 86 | 248 | 4.0 | 8.0 | 0.00 | 0.00 | 0.00 | 49 | 1019.3 |
| 20260904180741 | 87 | 240 | 4.0 | 7.0 | 0.00 | 0.00 | 0.00 | 49 | 1019.2 |
| 20260904180549 | 87 | 236 | 4.0 | 7.0 | 0.00 | 0.00 | 0.00 | 49 | 1019.2 |
| 20260904180433 | 87 | 285 | 3.0 | 9.0 | 0.00 | 0.00 | 0.00 | 48 | 1019.2 |
| 20260904180408 | 87 | 251 | 3.0 | 9.0 | 0.00 | 0.00 | 0.00 | 48 | 1019.1 |
| 20260904180220 | 87 | 256 | 5.0 | 9.0 | 0.00 | 0.00 | 0.00 | 47 | 1019.2 |
| 20260904180038 | 87 | 288 | 5.0 | 9.0 | 0.00 | 0.00 | 0.00 | 47 | 1019.1 |
| 20260904180001 | 87 | 268 | 4.0 | 9.0 | 0.00 | 0.00 | 0.00 | 46 | 1019.1 |
| 20260904175850 | 87 | 261 | 5.0 | 9.0 | 0.00 | 0.00 | 0.00 | 47 | 1019.1 |
| 20260904175709 | 88 | 259 | 6.0 | 9.0 | 0.00 | 0.00 | 0.00 | 46 | 1019.1 |
| 20260904175551 | 88 | 265 | 5.0 | 8.0 | 0.00 | 0.00 | 0.00 | 46 | 1019.1 |
| 20260904175513 | 88 | 281 | 5.0 | 8.0 | 0.00 | 0.00 | 0.00 | 45 | 1019.1 |
| 20260904175333 | 88 | 298 | 5.0 | 8.0 | 0.00 | 0.00 | 0.00 | 45 | 1019.0 |
| 20260904175142 | 88 | 274 | 5.0 | 8.0 | 0.00 | 0.00 | 0.00 | 45 | 1019.1 |
| 20260904175124 | 88 | 279 | 4.0 | 8.0 | 0.00 | 0.00 | 0.00 | 45 | 1019.1 |
| 20260904174700 | 88 | 248 | 5.0 | 9.0 | 0.00 | 0.00 | 0.00 | 45 | 1019.1 |
| 20260904174558 | 89 | 254 | 6.0 | 9.0 | 0.00 | 0.00 | 0.00 | 45 | 1019.1 |
| 20260904174515 | 89 | 267 | 6.0 | 9.0 | 0.00 | 0.00 | 0.00 | 44 | 1019.1 |
| 20260904174330 | 89 | 269 | 5.0 | 9.0 | 0.00 | 0.00 | 0.00 | 44 | 1019.0 |
| 20260904173951 | 89 | 267 | 7.0 | 12.0 | 0.00 | 0.00 | 0.00 | 45 | 1019.0 |
| 20260904173818 | 89 | 272 | 7.0 | 12.0 | 0.00 | 0.00 | 0.00 | 45 | 1019.0 |
| 20260904173633 | 89 | 259 | 4.0 | 12.0 | 0.00 | 0.00 | 0.00 | 45 | 1019.0 |
| 20260904173531 | 89 | 261 | 7.0 | 12.0 | 0.00 | 0.00 | 0.00 | 45 | 1019.0 |
| 20260904173447 | 89 | 267 | 8.0 | 12.0 | 0.00 | 0.00 | 0.00 | 45 | 1019.0 |
| 20260904173300 | 89 | 263 | 6.0 | 12.0 | 0.00 | 0.00 | 0.00 | 44 | 1019.1 |
| 20260904173113 | 90 | 279 | 6.0 | 10.0 | 0.00 | 0.00 | 0.00 | 45 | 1019.0 |
| 20260904173105 | 90 | 279 | 7.0 | 10.0 | 0.00 | 0.00 | 0.00 | 45 | 1019.0 |
| 20260904172238 | 91 | 300 | 6.0 | 9.0 | 0.00 | 0.00 | 0.00 | 45 | 1019.0 |
| 20260904172042 | 91 | 271 | 4.0 | 8.0 | 0.00 | 0.00 | 0.00 | 46 | 1019.0 |
| 20260904171902 | 91 | 243 | 3.0 | 8.0 | 0.00 | 0.00 | 0.00 | 46 | 1019.0 |
| 20260904171509 | 91 | 228 | 4.0 | 9.0 | 0.00 | 0.00 | 0.00 | 47 | 1019.0 |
| 20260904171423 | 91 | 244 | 5.0 | 10.0 | 0.00 | 0.00 | 0.00 | 47 | 1019.0 |
| 20260904171248 | 92 | 247 | 3.0 | 10.0 | 0.00 | 0.00 | 0.00 | 45 | 1018.9 |
| 20260904171107 | 92 | 252 | 4.0 | 10.0 | 0.00 | 0.00 | 0.00 | 45 | 1018.9 |
| 20260904170931 | 92 | 250 | 6.0 | 10.0 | 0.00 | 0.00 | 0.00 | 45 | 1019.0 |
| 20260904170748 | 92 | 267 | 5.0 | 10.0 | 0.00 | 0.00 | 0.00 | 44 | 1018.9 |
| 20260904170257 | 93 | 283 | 4.0 | 10.0 | 0.00 | 0.00 | 0.00 | 44 | 1018.9 |
| 20260904170106 | 93 | 243 | 4.0 | 10.0 | 0.00 | 0.00 | 0.00 | 43 | 1018.9 |
| 20260904165929 | 93 | 255 | 4.0 | 10.0 | 0.00 | 0.00 | 0.00 | 42 | 1019.0 |
| 20260904165736 | 93 | 244 | 3.0 | 8.0 | 0.00 | 0.00 | 0.00 | 42 | 1018.9 |
| 20260904165638 | 94 | 234 | 2.0 | 8.0 | 0.00 | 0.00 | 0.00 | 42 | 1018.9 |
| 20260904165549 | 94 | 257 | 2.0 | 8.0 | 0.00 | 0.00 | 0.00 | 41 | 1019.0 |
| 20260904165204 | 94 | 240 | 3.0 | 8.0 | 0.00 | 0.00 | 0.00 | 40 | 1018.9 |
| 20260904164730 | 94 | 232 | 5.0 | 8.0 | 0.00 | 0.00 | 0.00 | 39 | 1019.0 |
| 20260904164634 | 94 | 253 | 6.0 | 8.0 | 0.00 | 0.00 | 0.00 | 39 | 1018.9 |
| 20260904164541 | 94 | 254 | 4.0 | 8.0 | 0.00 | 0.00 | 0.00 | 38 | 1018.9 |
| 20260904164024 | 94 | 215 | 3.0 | 10.0 | 0.00 | 0.00 | 0.00 | 37 | 1018.9 |
| 20260904163852 | 94 | 225 | 3.0 | 10.0 | 0.00 | 0.00 | 0.00 | 38 | 1018.9 |
| 20260904163713 | 94 | 216 | 3.0 | 10.0 | 0.00 | 0.00 | 0.00 | 37 | 1018.9 |
| 20260904163614 | 94 | 245 | 2.0 | 10.0 | 0.00 | 0.00 | 0.00 | 37 | 1018.9 |
| 20260904163528 | 94 | 248 | 3.0 | 10.0 | 0.00 | 0.00 | 0.00 | 38 | 1018.8 |
| 20260904163358 | 94 | 243 | 6.0 | 11.0 | 0.00 | 0.00 | 0.00 | 37 | 1018.8 |
| 20260904163131 | 94 | 257 | 3.0 | 11.0 | 0.00 | 0.00 | 0.00 | 37 | 1018.8 |
| 20260904162955 | 95 | 236 | 4.0 | 11.0 | 0.00 | 0.00 | 0.00 | 37 | 1018.8 |
| 20260904162539 | 95 | 274 | 5.0 | 11.0 | 0.00 | 0.00 | 0.00 | 37 | 1018.9 |
| 20260904162401 | 95 | 251 | 6.0 | 11.0 | 0.00 | 0.00 | 0.00 | 37 | 1019.0 |
| 20260904162200 | 95 | 242 | 5.0 | 11.0 | 0.00 | 0.00 | 0.00 | 36 | 1018.9 |
| 20260904161657 | 95 | 238 | 4.0 | 12.0 | 0.00 | 0.00 | 0.00 | 38 | 1018.9 |
| 20260904161602 | 95 | 242 | 6.0 | 14.0 | 0.00 | 0.00 | 0.00 | 37 | 1018.9 |
| 20260904161510 | 95 | 306 | 8.0 | 14.0 | 0.00 | 0.00 | 0.00 | 35 | 1019.0 |
| 20260904161330 | 95 | 269 | 6.0 | 14.0 | 0.00 | 0.00 | 0.00 | 35 | 1018.9 |
| 20260904161129 | 95 | 275 | 7.0 | 14.0 | 0.00 | 0.00 | 0.00 | 35 | 1018.8 |
| 20260904160950 | 95 | 263 | 9.0 | 14.0 | 0.00 | 0.00 | 0.00 | 36 | 1018.8 |
| 20260904160814 | 95 | 271 | 4.0 | 13.0 | 0.00 | 0.00 | 0.00 | 36 | 1018.8 |
| 20260904160345 | 96 | 253 | 3.0 | 12.0 | 0.00 | 0.00 | 0.00 | 37 | 1018.8 |
| 20260904160025 | 96 | 232 | 4.0 | 12.0 | 0.00 | 0.00 | 0.00 | 37 | 1018.8 |
| 20260904155847 | 96 | 236 | 4.0 | 12.0 | 0.00 | 0.00 | 0.00 | 37 | 1018.8 |
| 20260904155659 | 96 | 245 | 4.0 | 12.0 | 0.00 | 0.00 | 0.00 | 37 | 1018.8 |
| 20260904155603 | 96 | 241 | 6.0 | 12.0 | 0.00 | 0.00 | 0.00 | 36 | 1018.8 |
| 20260904155124 | 96 | 254 | 6.0 | 12.0 | 0.00 | 0.00 | 0.00 | 35 | 1018.7 |
| 20260904154938 | 96 | 235 | 5.0 | 9.0 | 0.00 | 0.00 | 0.00 | 35 | 1018.8 |
| 20260904154805 | 96 | 232 | 3.0 | 8.0 | 0.00 | 0.00 | 0.00 | 35 | 1018.7 |
| 20260904154619 | 97 | 206 | 4.0 | 8.0 | 0.00 | 0.00 | 0.00 | 34 | 1018.7 |
| 20260904154524 | 97 | 234 | 4.0 | 8.0 | 0.00 | 0.00 | 0.00 | 34 | 1018.8 |
| 20260904154436 | 97 | 234 | 4.0 | 8.0 | 0.00 | 0.00 | 0.00 | 34 | 1018.7 |
| 20260904154259 | 97 | 254 | 3.0 | 8.0 | 0.00 | 0.00 | 0.00 | 34 | 1018.7 |
| 20260904154110 | 97 | 215 | 4.0 | 8.0 | 0.00 | 0.00 | 0.00 | 33 | 1018.7 |
| 20260904153928 | 97 | 233 | 2.0 | 4.0 | 0.00 | 0.00 | 0.00 | 33 | 1018.8 |
| 20260904153759 | 97 | 224 | 2.0 | 4.0 | 0.00 | 0.00 | 0.00 | 33 | 1018.7 |
| 20260904153335 | 97 | 204 | 3.0 | 7.0 | 0.00 | 0.00 | 0.00 | 33 | 1018.7 |
| 20260904153156 | 97 | 205 | 3.0 | 7.0 | 0.00 | 0.00 | 0.00 | 33 | 1018.7 |
| 20260904152634 | 98 | 221 | 3.0 | 7.0 | 0.00 | 0.00 | 0.00 | 33 | 1018.8 |
| 20260904152537 | 98 | 225 | 3.0 | 7.0 | 0.00 | 0.00 | 0.00 | 34 | 1018.8 |
| 20260904152501 | 98 | 221 | 4.0 | 7.0 | 0.00 | 0.00 | 0.00 | 34 | 1018.8 |
| 20260904152321 | 98 | 235 | 2.0 | 6.0 | 0.00 | 0.00 | 0.00 | 34 | 1018.8 |
| 20260904152148 | 98 | 214 | 1.0 | 6.0 | 0.00 | 0.00 | 0.00 | 34 | 1018.7 |
| 20260904151753 | 98 | 184 | 1.0 | 10.0 | 0.00 | 0.00 | 0.00 | 35 | 1018.7 |
| 20260904151621 | 98 | 251 | 1.0 | 10.0 | 0.00 | 0.00 | 0.00 | 34 | 1018.7 |
| 20260904151538 | 98 | 209 | 0.0 | 10.0 | 0.00 | 0.00 | 0.00 | 34 | 1018.7 |
| 20260904151451 | 98 | 209 | 1.0 | 10.0 | 0.00 | 0.00 | 0.00 | 34 | 1018.7 |
| 20260904151337 | 97 | 221 | 5.0 | 10.0 | 0.00 | 0.00 | 0.00 | 34 | 1018.7 |
| 20260904151142 | 98 | 265 | 6.0 | 10.0 | 0.00 | 0.00 | 0.00 | 33 | 1018.7 |
| 20260904151006 | 98 | 279 | 3.0 | 9.0 | 0.00 | 0.00 | 0.00 | 33 | 1018.7 |
| 20260904150831 | 98 | 219 | 2.0 | 4.0 | 0.00 | 0.00 | 0.00 | 33 | 1018.7 |
| 20260904150738 | 98 | 204 | 2.0 | 5.0 | 0.00 | 0.00 | 0.00 | 33 | 1018.7 |
| 20260904150314 | 98 | 238 | 2.0 | 5.0 | 0.00 | 0.00 | 0.00 | 36 | 1018.6 |
| 20260904150136 | 98 | 153 | 1.0 | 5.0 | 0.00 | 0.00 | 0.00 | 36 | 1018.7 |
| 20260904150132 | 98 | 155 | 1.0 | 5.0 | 0.00 | 0.00 | 0.00 | 36 | 1018.7 |
| 20260904150016 | 98 | 207 | 2.0 | 5.0 | 0.00 | 0.00 | 0.00 | 35 | 1018.7 |
| 20260904145554 | 98 | 205 | 2.0 | 5.0 | 0.00 | 0.00 | 0.00 | 36 | 1018.8 |
| 20260904145456 | 98 | 191 | 2.0 | 5.0 | 0.00 | 0.00 | 0.00 | 35 | 1018.7 |
| 20260904145322 | 98 | 161 | 1.0 | 5.0 | 0.00 | 0.00 | 0.00 | 36 | 1018.7 |
| 20260904145205 | 97 | 180 | 2.0 | 3.0 | 0.00 | 0.00 | 0.00 | 36 | 1018.8 |
| 20260904145152 | 97 | 236 | 2.0 | 3.0 | 0.00 | 0.00 | 0.00 | 36 | 1018.8 |
| 20260904144632 | 97 | 109 | 2.0 | 4.0 | 0.00 | 0.00 | 0.00 | 36 | 1018.8 |
| 20260904144607 | 97 | 140 | 0.0 | 4.0 | 0.00 | 0.00 | 0.00 | 36 | 1018.8 |
| 20260904144507 | 97 | 205 | 1.0 | 6.0 | 0.00 | 0.00 | 0.00 | 36 | 1018.8 |
| 20260904144327 | 97 | 196 | 2.0 | 6.0 | 0.00 | 0.00 | 0.00 | 36 | 1018.9 |
| 20260904143544 | 96 | 202 | 1.0 | 6.0 | 0.00 | 0.00 | 0.00 | 37 | 1018.9 |
| 20260904143400 | 96 | 217 | 3.0 | 7.0 | 0.00 | 0.00 | 0.00 | 37 | 1019.0 |
| 20260904143340 | 96 | 229 | 2.0 | 7.0 | 0.00 | 0.00 | 0.00 | 37 | 1019.0 |
| 20260904143211 | 96 | 220 | 2.0 | 7.0 | 0.00 | 0.00 | 0.00 | 37 | 1018.9 |
| 20260904143012 | 96 | 233 | 2.0 | 7.0 | 0.00 | 0.00 | 0.00 | 37 | 1019.0 |
| 20260904142622 | 96 | 279 | 3.0 | 7.0 | 0.00 | 0.00 | 0.00 | 37 | 1019.1 |
| 20260904142443 | 96 | 237 | 4.0 | 8.0 | 0.00 | 0.00 | 0.00 | 37 | 1019.1 |
| 20260904142255 | 96 | 242 | 2.0 | 8.0 | 0.00 | 0.00 | 0.00 | 37 | 1019.2 |
| 20260904142240 | 96 | 231 | 2.0 | 8.0 | 0.00 | 0.00 | 0.00 | 37 | 1019.2 |
| 20260904142118 | 96 | 221 | 3.0 | 8.0 | 0.00 | 0.00 | 0.00 | 37 | 1019.2 |
| 20260904141935 | 96 | 249 | 4.0 | 8.0 | 0.00 | 0.00 | 0.00 | 37 | 1019.2 |
| 20260904141843 | 96 | 226 | 4.0 | 8.0 | 0.00 | 0.00 | 0.00 | 37 | 1019.2 |
| 20260904141751 | 96 | 251 | 2.0 | 8.0 | 0.00 | 0.00 | 0.00 | 37 | 1019.2 |
| 20260904141608 | 96 | 127 | 2.0 | 8.0 | 0.00 | 0.00 | 0.00 | 37 | 1019.3 |
| 20260904141438 | 96 | 248 | 3.0 | 8.0 | 0.00 | 0.00 | 0.00 | 37 | 1019.4 |
| 20260904141430 | 96 | 232 | 3.0 | 8.0 | 0.00 | 0.00 | 0.00 | 37 | 1019.4 |
| 20260904141255 | 96 | 290 | 2.0 | 8.0 | 0.00 | 0.00 | 0.00 | 36 | 1019.4 |
| 20260904141114 | 96 | 202 | 1.0 | 9.0 | 0.00 | 0.00 | 0.00 | 37 | 1019.5 |
| 20260904141017 | 96 | 218 | 2.0 | 9.0 | 0.00 | 0.00 | 0.00 | 37 | 1019.5 |
| 20260904140943 | 96 | 218 | 2.0 | 9.0 | 0.00 | 0.00 | 0.00 | 38 | 1019.5 |
| 20260904140801 | 96 | 212 | 3.0 | 9.0 | 0.00 | 0.00 | 0.00 | 37 | 1019.5 |
| 20260904140343 | 95 | 196 | 4.0 | 9.0 | 0.00 | 0.00 | 0.00 | 38 | 1019.4 |
| 20260904140219 | 95 | 274 | 2.0 | 9.0 | 0.00 | 0.00 | 0.00 | 37 | 1019.5 |
| 20260904140043 | 95 | 298 | 5.0 | 9.0 | 0.00 | 0.00 | 0.00 | 37 | 1019.5 |
| 20260904135921 | 95 | 280 | 4.0 | 9.0 | 0.00 | 0.00 | 0.00 | 37 | 1019.5 |
| 20260904135454 | 95 | 284 | 2.0 | 13.0 | 0.00 | 0.00 | 0.00 | 37 | 1019.5 |
| 20260904135321 | 94 | 325 | 2.0 | 13.0 | 0.00 | 0.00 | 0.00 | 38 | 1019.6 |
| 20260904135250 | 94 | 325 | 2.0 | 13.0 | 0.00 | 0.00 | 0.00 | 37 | 1019.5 |
| 20260904135143 | 94 | 289 | 4.0 | 13.0 | 0.00 | 0.00 | 0.00 | 37 | 1019.6 |
| 20260904135007 | 94 | 279 | 4.0 | 13.0 | 0.00 | 0.00 | 0.00 | 38 | 1019.6 |
| 20260904134902 | 94 | 268 | 9.0 | 13.0 | 0.00 | 0.00 | 0.00 | 37 | 1019.6 |
| 20260904134837 | 94 | 293 | 7.0 | 13.0 | 0.00 | 0.00 | 0.00 | 37 | 1019.6 |
| 20260904134654 | 94 | 285 | 6.0 | 8.0 | 0.00 | 0.00 | 0.00 | 36 | 1019.7 |
| 20260904134513 | 95 | 240 | 3.0 | 8.0 | 0.00 | 0.00 | 0.00 | 36 | 1019.7 |
| 20260904134443 | 95 | 265 | 3.0 | 8.0 | 0.00 | 0.00 | 0.00 | 36 | 1019.7 |
| 20260904133958 | 94 | 314 | 4.0 | 10.0 | 0.00 | 0.00 | 0.00 | 36 | 1019.6 |
| 20260904133836 | 94 | 350 | 4.0 | 10.0 | 0.00 | 0.00 | 0.00 | 36 | 1019.6 |
| 20260904133815 | 94 | 344 | 3.0 | 10.0 | 0.00 | 0.00 | 0.00 | 36 | 1019.6 |
| 20260904133632 | 95 | 236 | 4.0 | 10.0 | 0.00 | 0.00 | 0.00 | 36 | 1019.7 |
| 20260904133451 | 94 | 283 | 6.0 | 10.0 | 0.00 | 0.00 | 0.00 | 36 | 1019.7 |
| 20260904133425 | 94 | 280 | 6.0 | 10.0 | 0.00 | 0.00 | 0.00 | 36 | 1019.7 |
| 20260904133305 | 94 | 283 | 1.0 | 9.0 | 0.00 | 0.00 | 0.00 | 37 | 1019.6 |
| 20260904133134 | 94 | 151 | 1.0 | 6.0 | 0.00 | 0.00 | 0.00 | 36 | 1019.6 |
| 20260904133021 | 94 | 54 | 2.0 | 6.0 | 0.00 | 0.00 | 0.00 | 36 | 1019.6 |
| 20260904132952 | 94 | 165 | 2.0 | 8.0 | 0.00 | 0.00 | 0.00 | 37 | 1019.6 |
| 20260904132811 | 94 | 259 | 3.0 | 8.0 | 0.00 | 0.00 | 0.00 | 36 | 1019.6 |
| 20260904132631 | 94 | 260 | 3.0 | 9.0 | 0.00 | 0.00 | 0.00 | 35 | 1019.5 |
| 20260904132556 | 94 | 263 | 3.0 | 9.0 | 0.00 | 0.00 | 0.00 | 35 | 1019.5 |
| 20260904132449 | 94 | 300 | 2.0 | 9.0 | 0.00 | 0.00 | 0.00 | 35 | 1019.5 |
| 20260904132317 | 94 | 292 | 5.0 | 9.0 | 0.00 | 0.00 | 0.00 | 36 | 1019.6 |
| 20260904132154 | 93 | 273 | 5.0 | 9.0 | 0.00 | 0.00 | 0.00 | 36 | 1019.6 |
| 20260904132133 | 94 | 305 | 5.0 | 11.0 | 0.00 | 0.00 | 0.00 | 36 | 1019.6 |
| 20260904131401 | 93 | 298 | 3.0 | 11.0 | 0.00 | 0.00 | 0.00 | 35 | 1019.6 |
| 20260904131246 | 93 | 333 | 3.0 | 11.0 | 0.00 | 0.00 | 0.00 | 35 | 1019.6 |
| 20260904131113 | 93 | 269 | 8.0 | 11.0 | 0.00 | 0.00 | 0.00 | 35 | 1019.7 |
| 20260904130956 | 93 | 264 | 8.0 | 11.0 | 0.00 | 0.00 | 0.00 | 34 | 1019.7 |
| 20260904130931 | 93 | 276 | 7.0 | 10.0 | 0.00 | 0.00 | 0.00 | 34 | 1019.8 |
| 20260904130747 | 93 | 278 | 1.0 | 10.0 | 0.00 | 0.00 | 0.00 | 34 | 1019.7 |
| 20260904130336 | 93 | 254 | 2.0 | 10.0 | 0.00 | 0.00 | 0.00 | 34 | 1019.8 |
| 20260904130223 | 93 | 207 | 5.0 | 10.0 | 0.00 | 0.00 | 0.00 | 34 | 1019.8 |
| 20260904130049 | 93 | 282 | 4.0 | 10.0 | 0.00 | 0.00 | 0.00 | 33 | 1019.8 |
| 20260904125934 | 93 | 236 | 4.0 | 10.0 | 0.00 | 0.00 | 0.00 | 33 | 1019.7 |
| 20260904125908 | 93 | 241 | 4.0 | 10.0 | 0.00 | 0.00 | 0.00 | 33 | 1019.8 |
| 20260904125730 | 93 | 297 | 6.0 | 10.0 | 0.00 | 0.00 | 0.00 | 32 | 1019.8 |
| 20260904125540 | 93 | 270 | 6.0 | 10.0 | 0.00 | 0.00 | 0.00 | 32 | 1019.8 |
| 20260904125505 | 93 | 282 | 6.0 | 10.0 | 0.00 | 0.00 | 0.00 | 32 | 1019.8 |
| 20260904125351 | 93 | 301 | 3.0 | 8.0 | 0.00 | 0.00 | 0.00 | 36 | 1019.8 |
| 20260904125212 | 93 | 257 | 4.0 | 8.0 | 0.00 | 0.00 | 0.00 | 35 | 1019.8 |
| 20260904125058 | 93 | 261 | 2.0 | 8.0 | 0.00 | 0.00 | 0.00 | 36 | 1019.7 |
| 20260904125030 | 92 | 259 | 4.0 | 8.0 | 0.00 | 0.00 | 0.00 | 36 | 1019.8 |
| 20260904124858 | 92 | 247 | 4.0 | 8.0 | 0.00 | 0.00 | 0.00 | 36 | 1019.8 |
| 20260904124723 | 92 | 279 | 4.0 | 7.0 | 0.00 | 0.00 | 0.00 | 37 | 1019.8 |
| 20260904124653 | 92 | 302 | 4.0 | 7.0 | 0.00 | 0.00 | 0.00 | 36 | 1019.7 |
| 20260904124532 | 93 | 294 | 4.0 | 6.0 | 0.00 | 0.00 | 0.00 | 37 | 1019.8 |
| 20260904124124 | 93 | 233 | 4.0 | 6.0 | 0.00 | 0.00 | 0.00 | 38 | 1019.9 |
| 20260904124107 | 92 | 224 | 4.0 | 6.0 | 0.00 | 0.00 | 0.00 | 38 | 1019.8 |
| 20260904123926 | 92 | 257 | 2.0 | 5.0 | 0.00 | 0.00 | 0.00 | 39 | 1019.8 |
| 20260904123614 | 92 | 286 | 1.0 | 5.0 | 0.00 | 0.00 | 0.00 | 39 | 1019.8 |
| 20260904123517 | 92 | 286 | 2.0 | 8.0 | 0.00 | 0.00 | 0.00 | 39 | 1019.9 |
| 20260904123347 | 92 | 289 | 2.0 | 8.0 | 0.00 | 0.00 | 0.00 | 40 | 1019.8 |
| 20260904123228 | 92 | 48 | 2.0 | 8.0 | 0.00 | 0.00 | 0.00 | 39 | 1019.8 |
| 20260904123207 | 92 | 5 | 2.0 | 8.0 | 0.00 | 0.00 | 0.00 | 39 | 1019.8 |
| 20260904122754 | 92 | 250 | 6.0 | 10.0 | 0.00 | 0.00 | 0.00 | 39 | 1019.9 |
| 20260904122331 | 92 | 273 | 4.0 | 10.0 | 0.00 | 0.00 | 0.00 | 39 | 1019.9 |
| 20260904121937 | 92 | 267 | 6.0 | 10.0 | 0.00 | 0.00 | 0.00 | 36 | 1019.8 |
| 20260904121806 | 92 | 261 | 1.0 | 8.0 | 0.00 | 0.00 | 0.00 | 38 | 1020.0 |
| 20260904121630 | 92 | 314 | 1.0 | 8.0 | 0.00 | 0.00 | 0.00 | 37 | 1019.9 |
| 20260904121558 | 92 | 40 | 1.0 | 8.0 | 0.00 | 0.00 | 0.00 | 37 | 1019.9 |
| 20260904121449 | 92 | 32 | 3.0 | 8.0 | 0.00 | 0.00 | 0.00 | 36 | 1019.9 |
| 20260904121312 | 92 | 300 | 4.0 | 8.0 | 0.00 | 0.00 | 0.00 | 37 | 1019.9 |
| 20260904121145 | 91 | 288 | 5.0 | 8.0 | 0.00 | 0.00 | 0.00 | 37 | 1019.9 |
| 20260904120721 | 91 | 55 | 1.0 | 7.0 | 0.00 | 0.00 | 0.00 | 44 | 1020.0 |
| 20260904120608 | 91 | 150 | 1.0 | 7.0 | 0.00 | 0.00 | 0.00 | 44 | 1019.9 |
| 20260904120526 | 91 | 159 | 1.0 | 7.0 | 0.00 | 0.00 | 0.00 | 43 | 1020.0 |
| 20260904120438 | 91 | 274 | 2.0 | 7.0 | 0.00 | 0.00 | 0.00 | 44 | 1020.0 |
| 20260904120320 | 91 | 280 | 4.0 | 7.0 | 0.00 | 0.00 | 0.00 | 41 | 1020.0 |
| 20260904120141 | 91 | 284 | 4.0 | 7.0 | 0.00 | 0.00 | 0.00 | 41 | 1020.1 |
| 20260904120137 | 91 | 289 | 3.0 | 7.0 | 0.00 | 0.00 | 0.00 | 41 | 1020.1 |
| 20260904115956 | 91 | 308 | 1.0 | 7.0 | 0.00 | 0.00 | 0.00 | 44 | 1020.1 |
| 20260904115820 | 91 | 308 | 3.0 | 7.0 | 0.00 | 0.00 | 0.00 | 43 | 1020.0 |
| 20260904115739 | 91 | 308 | 3.0 | 7.0 | 0.00 | 0.00 | 0.00 | 43 | 1020.1 |
| 20260904115642 | 91 | 328 | 2.0 | 7.0 | 0.00 | 0.00 | 0.00 | 43 | 1020.0 |
| 20260904115032 | 91 | 279 | 2.0 | 6.0 | 0.00 | 0.00 | 0.00 | 43 | 1020.0 |
| 20260904114517 | 90 | 293 | 0.0 | 3.0 | 0.00 | 0.00 | 0.00 | 44 | 1020.0 |
| 20260904114133 | 90 | 293 | 0.0 | 3.0 | 0.00 | 0.00 | 0.00 | 41 | 1020.1 |
| 20260904114010 | 90 | 292 | 2.0 | 3.0 | 0.00 | 0.00 | 0.00 | 39 | 1020.1 |
| 20260904113850 | 90 | 294 | 0.0 | 3.0 | 0.00 | 0.00 | 0.00 | 43 | 1020.1 |
| 20260904113731 | 90 | 294 | 0.0 | 1.0 | 0.00 | 0.00 | 0.00 | 45 | 1020.1 |
| 20260904113637 | 90 | 294 | 0.0 | 1.0 | 0.00 | 0.00 | 0.00 | 47 | 1020.0 |
| 20260904113607 | 90 | 294 | 0.0 | 1.0 | 0.00 | 0.00 | 0.00 | 47 | 1020.0 |
| 20260904113538 | 90 | 294 | 0.0 | 1.0 | 0.00 | 0.00 | 0.00 | 47 | 1020.1 |
| 20260904113404 | 90 | 294 | 0.0 | 1.0 | 0.00 | 0.00 | 0.00 | 47 | 1020.0 |
| 20260904113259 | 89 | 294 | 1.0 | 2.0 | 0.00 | 0.00 | 0.00 | 47 | 1020.0 |
| 20260904112931 | 89 | 294 | 0.0 | 2.0 | 0.00 | 0.00 | 0.00 | 47 | 1020.0 |
| 20260904112521 | 89 | 294 | 0.0 | 3.0 | 0.00 | 0.00 | 0.00 | 48 | 1020.0 |
| 20260904112435 | 89 | 294 | 0.0 | 3.0 | 0.00 | 0.00 | 0.00 | 48 | 1020.1 |
| 20260904111339 | 88 | 294 | 0.0 | 3.0 | 0.00 | 0.00 | 0.00 | 49 | 1020.0 |
| 20260904111217 | 88 | 294 | 0.0 | 2.0 | 0.00 | 0.00 | 0.00 | 50 | 1020.0 |
| 20260904111122 | 88 | 294 | 0.0 | 3.0 | 0.00 | 0.00 | 0.00 | 49 | 1020.0 |
| 20260904111048 | 87 | 294 | 1.0 | 3.0 | 0.00 | 0.00 | 0.00 | 49 | 1020.0 |
| 20260904110937 | 87 | 294 | 0.0 | 3.0 | 0.00 | 0.00 | 0.00 | 50 | 1020.0 |
| 20260904110609 | 87 | 294 | 0.0 | 3.0 | 0.00 | 0.00 | 0.00 | 51 | 1020.0 |
| 20260904110111 | 87 | 294 | 1.0 | 3.0 | 0.00 | 0.00 | 0.00 | 51 | 1020.0 |
| 20260904110038 | 87 | 294 | 2.0 | 3.0 | 0.00 | 0.00 | 0.00 | 52 | 1019.9 |
| 20260904105949 | 87 | 294 | 1.0 | 3.0 | 0.00 | 0.00 | 0.00 | 52 | 1019.9 |
| 20260904105504 | 87 | 294 | 0.0 | 3.0 | 0.00 | 0.00 | 0.00 | 51 | 1019.9 |
| 20260904105455 | 87 | 294 | 0.0 | 3.0 | 0.00 | 0.00 | 0.00 | 51 | 1019.9 |
| 20260904104906 | 86 | 75 | 1.0 | 3.0 | 0.00 | 0.00 | 0.00 | 53 | 1020.0 |
| 20260904104821 | 86 | 75 | 1.0 | 3.0 | 0.00 | 0.00 | 0.00 | 53 | 1020.0 |
| 20260904104639 | 86 | 120 | 2.0 | 3.0 | 0.00 | 0.00 | 0.00 | 53 | 1020.0 |
| 20260904104514 | 86 | 134 | 2.0 | 3.0 | 0.00 | 0.00 | 0.00 | 54 | 1019.9 |
| 20260904104501 | 86 | 134 | 2.0 | 3.0 | 0.00 | 0.00 | 0.00 | 54 | 1019.9 |
| 20260904104304 | 86 | 129 | 2.0 | 3.0 | 0.00 | 0.00 | 0.00 | 54 | 1019.9 |
| 20260904104118 | 86 | 120 | 1.0 | 3.0 | 0.00 | 0.00 | 0.00 | 53 | 1020.0 |
| 20260904104031 | 86 | 134 | 2.0 | 3.0 | 0.00 | 0.00 | 0.00 | 53 | 1019.9 |
| 20260904103933 | 86 | 130 | 2.0 | 3.0 | 0.00 | 0.00 | 0.00 | 54 | 1020.0 |
| 20260904103733 | 85 | 131 | 1.0 | 3.0 | 0.00 | 0.00 | 0.00 | 54 | 1020.0 |
| 20260904103618 | 85 | 109 | 2.0 | 3.0 | 0.00 | 0.00 | 0.00 | 54 | 1019.9 |
| 20260904103556 | 85 | 109 | 2.0 | 3.0 | 0.00 | 0.00 | 0.00 | 54 | 1019.9 |
| 20260904103359 | 85 | 105 | 2.0 | 3.0 | 0.00 | 0.00 | 0.00 | 54 | 1020.0 |
| 20260904103220 | 85 | 119 | 1.0 | 3.0 | 0.00 | 0.00 | 0.00 | 55 | 1019.9 |
| 20260904103132 | 85 | 115 | 1.0 | 3.0 | 0.00 | 0.00 | 0.00 | 55 | 1019.9 |
| 20260904103039 | 85 | 128 | 1.0 | 3.0 | 0.00 | 0.00 | 0.00 | 55 | 1019.9 |
| 20260904102600 | 84 | 161 | 0.0 | 2.0 | 0.00 | 0.00 | 0.00 | 56 | 1019.9 |
| 20260904102545 | 84 | 161 | 0.0 | 2.0 | 0.00 | 0.00 | 0.00 | 56 | 1019.9 |
| 20260904102031 | 84 | 126 | 1.0 | 2.0 | 0.00 | 0.00 | 0.00 | 57 | 1020.0 |
| 20260904102016 | 84 | 126 | 1.0 | 3.0 | 0.00 | 0.00 | 0.00 | 57 | 1019.9 |
| 20260904101910 | 83 | 132 | 1.0 | 3.0 | 0.00 | 0.00 | 0.00 | 58 | 1019.9 |
| 20260904101720 | 83 | 155 | 0.0 | 3.0 | 0.00 | 0.00 | 0.00 | 59 | 1019.9 |
| 20260904101621 | 83 | 68 | 1.0 | 3.0 | 0.00 | 0.00 | 0.00 | 58 | 1019.9 |
| 20260904101554 | 83 | 68 | 1.0 | 3.0 | 0.00 | 0.00 | 0.00 | 59 | 1019.9 |
| 20260904101441 | 83 | 132 | 1.0 | 3.0 | 0.00 | 0.00 | 0.00 | 59 | 1019.9 |
| 20260904101303 | 82 | 155 | 1.0 | 3.0 | 0.00 | 0.00 | 0.00 | 60 | 1019.9 |
| 20260904101233 | 82 | 116 | 0.0 | 2.0 | 0.00 | 0.00 | 0.00 | 60 | 1019.9 |
| 20260904101127 | 82 | 76 | 0.0 | 2.0 | 0.00 | 0.00 | 0.00 | 61 | 1019.9 |
| 20260904101003 | 82 | 76 | 0.0 | 2.0 | 0.00 | 0.00 | 0.00 | 61 | 1019.9 |
| 20260904100630 | 81 | 76 | 0.0 | 2.0 | 0.00 | 0.00 | 0.00 | 62 | 1019.9 |
| 20260904100517 | 81 | 76 | 0.0 | 3.0 | 0.00 | 0.00 | 0.00 | 62 | 1019.8 |
| 20260904100358 | 80 | 76 | 1.0 | 4.0 | 0.00 | 0.00 | 0.00 | 62 | 1019.9 |
| 20260904100319 | 80 | 76 | 1.0 | 4.0 | 0.00 | 0.00 | 0.00 | 62 | 1019.9 |
| 20260904100226 | 80 | 73 | 1.0 | 4.0 | 0.00 | 0.00 | 0.00 | 63 | 1019.9 |
| 20260904100039 | 80 | 111 | 1.0 | 4.0 | 0.00 | 0.00 | 0.00 | 62 | 1019.8 |
| 20260904095917 | 80 | 111 | 2.0 | 4.0 | 0.00 | 0.00 | 0.00 | 62 | 1019.9 |
| 20260904095901 | 79 | 111 | 2.0 | 4.0 | 0.00 | 0.00 | 0.00 | 62 | 1019.9 |
| 20260904095718 | 79 | 155 | 1.0 | 4.0 | 0.00 | 0.00 | 0.00 | 64 | 1019.9 |
| 20260904095538 | 79 | 61 | 1.0 | 4.0 | 0.00 | 0.00 | 0.00 | 64 | 1019.9 |
| 20260904095505 | 79 | 60 | 1.0 | 4.0 | 0.00 | 0.00 | 0.00 | 64 | 1019.9 |
| 20260904095017 | 79 | 134 | 2.0 | 4.0 | 0.00 | 0.00 | 0.00 | 64 | 1019.8 |
| 20260904094842 | 78 | 61 | 2.0 | 4.0 | 0.00 | 0.00 | 0.00 | 64 | 1019.9 |
| 20260904094829 | 78 | 92 | 2.0 | 4.0 | 0.00 | 0.00 | 0.00 | 64 | 1019.9 |
| 20260904094647 | 78 | 53 | 2.0 | 4.0 | 0.00 | 0.00 | 0.00 | 64 | 1019.8 |
| 20260904094518 | 78 | 63 | 2.0 | 4.0 | 0.00 | 0.00 | 0.00 | 65 | 1019.9 |
| 20260904094119 | 78 | 121 | 2.0 | 4.0 | 0.00 | 0.00 | 0.00 | 66 | 1019.8 |
| 20260904093942 | 77 | 84 | 2.0 | 4.0 | 0.00 | 0.00 | 0.00 | 65 | 1019.8 |
| 20260904093804 | 77 | 153 | 1.0 | 4.0 | 0.00 | 0.00 | 0.00 | 66 | 1019.9 |
| 20260904093752 | 77 | 157 | 1.0 | 4.0 | 0.00 | 0.00 | 0.00 | 66 | 1019.9 |
| 20260904093612 | 77 | 90 | 2.0 | 4.0 | 0.00 | 0.00 | 0.00 | 66 | 1019.9 |
| 20260904093436 | 76 | 117 | 1.0 | 4.0 | 0.00 | 0.00 | 0.00 | 67 | 1019.9 |
| 20260904093342 | 76 | 78 | 2.0 | 4.0 | 0.00 | 0.00 | 0.00 | 67 | 1019.8 |
| 20260904093238 | 76 | 62 | 3.0 | 4.0 | 0.00 | 0.00 | 0.00 | 67 | 1019.8 |
| 20260904093059 | 76 | 128 | 2.0 | 4.0 | 0.00 | 0.00 | 0.00 | 68 | 1019.7 |
| 20260904092910 | 76 | 161 | 2.0 | 4.0 | 0.00 | 0.00 | 0.00 | 68 | 1019.8 |
| 20260904092738 | 76 | 170 | 3.0 | 4.0 | 0.00 | 0.00 | 0.00 | 68 | 1019.8 |
| 20260904092554 | 76 | 134 | 2.0 | 4.0 | 0.00 | 0.00 | 0.00 | 68 | 1019.7 |
| 20260904092459 | 75 | 115 | 3.0 | 4.0 | 0.00 | 0.00 | 0.00 | 67 | 1019.7 |
| 20260904092017 | 75 | 74 | 2.0 | 4.0 | 0.00 | 0.00 | 0.00 | 68 | 1019.7 |
| 20260904091836 | 75 | 82 | 2.0 | 4.0 | 0.00 | 0.00 | 0.00 | 68 | 1019.7 |
| 20260904091706 | 75 | 70 | 2.0 | 3.0 | 0.00 | 0.00 | 0.00 | 68 | 1019.8 |
| 20260904091523 | 75 | 56 | 2.0 | 3.0 | 0.00 | 0.00 | 0.00 | 69 | 1019.7 |
| 20260904091428 | 75 | 60 | 1.0 | 3.0 | 0.00 | 0.00 | 0.00 | 69 | 1019.8 |
| 20260904091338 | 75 | 67 | 0.0 | 3.0 | 0.00 | 0.00 | 0.00 | 69 | 1019.8 |
| 20260904091226 | 75 | 76 | 0.0 | 2.0 | 0.00 | 0.00 | 0.00 | 69 | 1019.8 |
| 20260904090539 | 74 | 87 | 1.0 | 2.0 | 0.00 | 0.00 | 0.00 | 71 | 1019.9 |
| 20260904090413 | 74 | 80 | 1.0 | 2.0 | 0.00 | 0.00 | 0.00 | 71 | 1019.9 |
| 20260904090313 | 74 | 70 | 1.0 | 3.0 | 0.00 | 0.00 | 0.00 | 72 | 1019.7 |
| 20260904085823 | 73 | 131 | 0.0 | 3.0 | 0.00 | 0.00 | 0.00 | 72 | 1019.9 |
| 20260904085702 | 73 | 131 | 1.0 | 4.0 | 0.00 | 0.00 | 0.00 | 73 | 1019.8 |
| 20260904085546 | 72 | 124 | 1.0 | 4.0 | 0.00 | 0.00 | 0.00 | 73 | 1019.8 |
| 20260904085415 | 72 | 74 | 2.0 | 4.0 | 0.00 | 0.00 | 0.00 | 73 | 1019.8 |
| 20260904084643 | 72 | 131 | 2.0 | 4.0 | 0.00 | 0.00 | 0.00 | 73 | 1019.7 |
| 20260904084456 | 71 | 92 | 2.0 | 4.0 | 0.00 | 0.00 | 0.00 | 73 | 1019.7 |
| 20260904083916 | 71 | 135 | 3.0 | 4.0 | 0.00 | 0.00 | 0.00 | 73 | 1019.8 |
| 20260904083818 | 71 | 134 | 2.0 | 4.0 | 0.00 | 0.00 | 0.00 | 73 | 1019.7 |
| 20260904083724 | 71 | 134 | 2.0 | 4.0 | 0.00 | 0.00 | 0.00 | 74 | 1019.7 |
| 20260904082928 | 71 | 66 | 2.0 | 4.0 | 0.00 | 0.00 | 0.00 | 75 | 1019.6 |
| 20260904082350 | 70 | 107 | 1.0 | 4.0 | 0.00 | 0.00 | 0.00 | 76 | 1019.7 |
| 20260904081948 | 70 | 115 | 1.0 | 4.0 | 0.00 | 0.00 | 0.00 | 77 | 1019.7 |
| 20260904081808 | 69 | 102 | 2.0 | 4.0 | 0.00 | 0.00 | 0.00 | 77 | 1019.7 |
| 20260904081615 | 69 | 81 | 2.0 | 3.0 | 0.00 | 0.00 | 0.00 | 77 | 1019.7 |
| 20260904081427 | 69 | 111 | 2.0 | 3.0 | 0.00 | 0.00 | 0.00 | 78 | 1019.7 |
| 20260904081301 | 69 | 119 | 1.0 | 3.0 | 0.00 | 0.00 | 0.00 | 79 | 1019.6 |
| 20260904080502 | 68 | 59 | 1.0 | 3.0 | 0.00 | 0.00 | 0.00 | 80 | 1019.7 |
| 20260904075333 | 67 | 107 | 2.0 | 3.0 | 0.00 | 0.00 | 0.00 | 80 | 1019.7 |
| 20260904075238 | 67 | 77 | 2.0 | 3.0 | 0.00 | 0.00 | 0.00 | 81 | 1019.7 |
| 20260904075145 | 67 | 67 | 2.0 | 3.0 | 0.00 | 0.00 | 0.00 | 81 | 1019.7 |
| 20260904074944 | 67 | 63 | 1.0 | 2.0 | 0.00 | 0.00 | 0.00 | 83 | 1019.7 |
| 20260904074754 | 66 | 74 | 1.0 | 2.0 | 0.00 | 0.00 | 0.00 | 84 | 1019.7 |
| 20260904074625 | 66 | 64 | 1.0 | 3.0 | 0.00 | 0.00 | 0.00 | 84 | 1019.7 |
| 20260904074444 | 65 | 67 | 1.0 | 4.0 | 0.00 | 0.00 | 0.00 | 85 | 1019.6 |
| 20260904074040 | 65 | 132 | 1.0 | 4.0 | 0.00 | 0.00 | 0.00 | 85 | 1019.7 |
| 20260904073849 | 65 | 108 | 1.0 | 4.0 | 0.00 | 0.00 | 0.00 | 86 | 1019.6 |
| 20260904073725 | 64 | 105 | 2.0 | 5.0 | 0.00 | 0.00 | 0.00 | 86 | 1019.6 |
| 20260904073713 | 64 | 103 | 2.0 | 5.0 | 0.00 | 0.00 | 0.00 | 86 | 1019.6 |
| 20260904073524 | 64 | 82 | 2.0 | 5.0 | 0.00 | 0.00 | 0.00 | 86 | 1019.6 |
| 20260904073358 | 64 | 86 | 2.0 | 5.0 | 0.00 | 0.00 | 0.00 | 87 | 1019.5 |
| 20260904073256 | 64 | 95 | 3.0 | 5.0 | 0.00 | 0.00 | 0.00 | 86 | 1019.6 |
| 20260904073207 | 64 | 109 | 2.0 | 5.0 | 0.00 | 0.00 | 0.00 | 87 | 1019.5 |
| 20260904073016 | 64 | 97 | 4.0 | 5.0 | 0.00 | 0.00 | 0.00 | 86 | 1019.6 |
| 20260904072835 | 64 | 93 | 3.0 | 5.0 | 0.00 | 0.00 | 0.00 | 87 | 1019.6 |
| 20260904072818 | 64 | 78 | 3.0 | 5.0 | 0.00 | 0.00 | 0.00 | 87 | 1019.6 |
| 20260904071231 | 63 | 112 | 3.0 | 4.0 | 0.00 | 0.00 | 0.00 | 88 | 1019.7 |
| 20260904071047 | 63 | 67 | 2.0 | 4.0 | 0.00 | 0.00 | 0.00 | 89 | 1019.6 |
| 20260904071026 | 63 | 84 | 2.0 | 3.0 | 0.00 | 0.00 | 0.00 | 89 | 1019.7 |
| 20260904070736 | 62 | 84 | 1.0 | 3.0 | 0.00 | 0.00 | 0.00 | 90 | 1019.7 |
| 20260904070600 | 62 | 74 | 2.0 | 3.0 | 0.00 | 0.00 | 0.00 | 91 | 1019.7 |
| 20260904070451 | 62 | 74 | 2.0 | 3.0 | 0.00 | 0.00 | 0.00 | 91 | 1019.6 |
| 20260904070331 | 62 | 82 | 1.0 | 3.0 | 0.00 | 0.00 | 0.00 | 91 | 1019.6 |
| 20260904070146 | 62 | 92 | 0.0 | 1.0 | 0.00 | 0.00 | 0.00 | 92 | 1019.6 |
| 20260904070045 | 61 | 92 | 0.0 | 1.0 | 0.00 | 0.00 | 0.00 | 92 | 1019.7 |
| 20260904065614 | 61 | 92 | 0.0 | 1.0 | 0.00 | 0.00 | 0.00 | 92 | 1019.7 |
| 20260904065459 | 61 | 92 | 0.0 | 1.0 | 0.00 | 0.00 | 0.00 | 93 | 1019.6 |
| 20260904065415 | 61 | 113 | 0.0 | 1.0 | 0.00 | 0.00 | 0.00 | 93 | 1019.6 |
| 20260904065252 | 60 | 113 | 0.0 | 1.0 | 0.00 | 0.00 | 0.00 | 93 | 1019.6 |
| 20260904065137 | 60 | 113 | 0.0 | 3.0 | 0.00 | 0.00 | 0.00 | 94 | 1019.6 |
| 20260904065011 | 60 | 78 | 0.0 | 3.0 | 0.00 | 0.00 | 0.00 | 94 | 1019.6 |
| 20260904064455 | 60 | 78 | 0.0 | 3.0 | 0.00 | 0.00 | 0.00 | 93 | 1019.6 |
| 20260904064423 | 60 | 78 | 1.0 | 3.0 | 0.00 | 0.00 | 0.00 | 93 | 1019.6 |
| 20260904064238 | 60 | 88 | 1.0 | 3.0 | 0.00 | 0.00 | 0.00 | 94 | 1019.6 |
| 20260904064114 | 60 | 76 | 1.0 | 3.0 | 0.00 | 0.00 | 0.00 | 94 | 1019.5 |
| 20260904063929 | 59 | 59 | 0.0 | 2.0 | 0.00 | 0.00 | 0.00 | 94 | 1019.5 |
| 20260904063716 | 59 | 89 | 0.0 | 1.0 | 0.00 | 0.00 | 0.00 | 94 | 1019.6 |
| 20260904063625 | 59 | 79 | 0.0 | 0.0 | 0.00 | 0.00 | 0.00 | 94 | 1019.6 |
| 20260904063233 | 59 | 79 | 0.0 | 0.0 | 0.00 | 0.00 | 0.00 | 94 | 1019.6 |
| 20260904062811 | 59 | 79 | 0.0 | 0.0 | 0.00 | 0.00 | 0.00 | 94 | 1019.7 |
| 20260904062616 | 59 | 79 | 0.0 | 0.0 | 0.00 | 0.00 | 0.00 | 95 | 1019.7 |
| 20260904062528 | 59 | 79 | 0.0 | 0.0 | 0.00 | 0.00 | 0.00 | 95 | 1019.7 |
| 20260904062500 | 59 | 79 | 0.0 | 0.0 | 0.00 | 0.00 | 0.00 | 95 | 1019.7 |
| 20260904062017 | 59 | 79 | 0.0 | 0.0 | 0.00 | 0.00 | 0.00 | 95 | 1019.6 |
| 20260904061916 | 59 | 79 | 0.0 | 0.0 | 0.00 | 0.00 | 0.00 | 95 | 1019.7 |
| 20260904061711 | 59 | 79 | 0.0 | 0.0 | 0.00 | 0.00 | 0.00 | 96 | 1019.6 |
| 20260904061553 | 58 | 79 | 0.0 | 0.0 | 0.00 | 0.00 | 0.00 | 95 | 1019.7 |
| 20260904061522 | 58 | 79 | 0.0 | 0.0 | 0.00 | 0.00 | 0.00 | 96 | 1019.6 |
| 20260904060753 | 76 | 53 | 1.0 | 2.0 | 0.00 | 0.00 | 0.00 | 57 | 1021.6 |
| 20260904060655 | 58 | 79 | 0.0 | 0.0 | 0.00 | 0.00 | 0.00 | 96 | 1019.4 |
| 20260904060455 | 58 | 79 | 0.0 | 0.0 | 0.00 | 0.00 | 0.00 | 96 | 1019.6 |
| 20260904060402 | 58 | 79 | 0.0 | 0.0 | 0.00 | 0.00 | 0.00 | 96 | 1019.5 |
| 20260904060329 | 58 | 79 | 0.0 | 0.0 | 0.00 | 0.00 | 0.00 | 96 | 1019.5 |
| 20260904060303 | 58 | 79 | 0.0 | 0.0 | 0.00 | 0.00 | 0.00 | 96 | 1019.5 |
| 20260904060103 | 58 | 79 | 0.0 | 0.0 | 0.00 | 0.00 | 0.00 | 96 | 1019.4 |
| 20260904060004 | 58 | 79 | 0.0 | 0.0 | 0.00 | 0.00 | 0.00 | 96 | 1019.4 |
| 20260904055757 | 57 | 79 | 0.0 | 0.0 | 0.00 | 0.00 | 0.00 | 96 | 1019.5 |
| 20260904055228 | 57 | 79 | 0.0 | 0.0 | 0.00 | 0.00 | 0.00 | 96 | 1019.4 |
| 20260904054630 | 57 | 79 | 0.0 | 0.0 | 0.00 | 0.00 | 0.00 | 96 | 1019.3 |
| 20260904054412 | 57 | 79 | 0.0 | 0.0 | 0.00 | 0.00 | 0.00 | 96 | 1019.4 |
| 20260904054248 | 78 | 53 | 0.0 | 2.0 | 0.00 | 0.00 | 0.00 | 54 | 1021.6 |
| 20260904054211 | 57 | 79 | 0.0 | 0.0 | 0.00 | 0.00 | 0.00 | 95 | 1019.2 |
| 20260904054142 | 57 | 79 | 0.0 | 0.0 | 0.00 | 0.00 | 0.00 | 95 | 1019.3 |
| 20260904054059 | 57 | 79 | 0.0 | 0.0 | 0.00 | 0.00 | 0.00 | 95 | 1019.3 |
| 20260904053812 | 57 | 79 | 0.0 | 0.0 | 0.00 | 0.00 | 0.00 | 95 | 1019.2 |
| 20260904053702 | 57 | 79 | 0.0 | 0.0 | 0.00 | 0.00 | 0.00 | 95 | 1019.3 |
| 20260904053514 | 57 | 79 | 0.0 | 0.0 | 0.00 | 0.00 | 0.00 | 95 | 1019.2 |
| 20260904053429 | 57 | 79 | 0.0 | 0.0 | 0.00 | 0.00 | 0.00 | 95 | 1019.2 |
| 20260904053403 | 57 | 79 | 0.0 | 0.0 | 0.00 | 0.00 | 0.00 | 95 | 1019.3 |
| 20260904052939 | 57 | 79 | 0.0 | 0.0 | 0.00 | 0.00 | 0.00 | 95 | 1019.2 |
| 20260904052844 | 57 | 79 | 0.0 | 0.0 | 0.00 | 0.00 | 0.00 | 95 | 1019.3 |
| 20260904052712 | 57 | 79 | 0.0 | 0.0 | 0.00 | 0.00 | 0.00 | 95 | 1019.3 |
| 20260904052614 | 57 | 79 | 0.0 | 0.0 | 0.00 | 0.00 | 0.00 | 95 | 1019.3 |
| 20260904052549 | 57 | 79 | 0.0 | 0.0 | 0.00 | 0.00 | 0.00 | 95 | 1019.3 |
| 20260904052525 | 57 | 79 | 0.0 | 0.0 | 0.00 | 0.00 | 0.00 | 95 | 1019.3 |
| 20260904052402 | 57 | 79 | 0.0 | 0.0 | 0.00 | 0.00 | 0.00 | 95 | 1019.3 |
| 20260904052313 | 57 | 79 | 0.0 | 0.0 | 0.00 | 0.00 | 0.00 | 95 | 1019.3 |
| 20260904052218 | 57 | 79 | 0.0 | 0.0 | 0.00 | 0.00 | 0.00 | 95 | 1019.2 |
| 20260904052137 | 57 | 79 | 0.0 | 0.0 | 0.00 | 0.00 | 0.00 | 96 | 1019.4 |
| 20260904052113 | 57 | 79 | 0.0 | 0.0 | 0.00 | 0.00 | 0.00 | 96 | 1019.3 |
| 20260904052048 | 57 | 79 | 0.0 | 0.0 | 0.00 | 0.00 | 0.00 | 96 | 1019.3 |
| 20260904051636 | 57 | 79 | 0.0 | 3.0 | 0.00 | 0.00 | 0.00 | 96 | 1019.3 |
| 20260904050523 | 57 | 79 | 0.0 | 3.0 | 0.00 | 0.00 | 0.00 | 95 | 1019.3 |
| 20260904050313 | 57 | 69 | 0.0 | 1.0 | 0.00 | 0.00 | 0.00 | 95 | 1019.2 |
| 20260904045931 | 57 | 46 | 0.0 | 2.0 | 0.00 | 0.00 | 0.00 | 95 | 1019.3 |
| 20260904045729 | 57 | 46 | 0.0 | 2.0 | 0.00 | 0.00 | 0.00 | 95 | 1019.4 |
| 20260904045359 | 57 | 46 | 0.0 | 3.0 | 0.00 | 0.00 | 0.00 | 95 | 1019.3 |
| 20260904045316 | 57 | 46 | 0.0 | 3.0 | 0.00 | 0.00 | 0.00 | 95 | 1019.3 |
| 20260904045122 | 57 | 46 | 1.0 | 3.0 | 0.00 | 0.00 | 0.00 | 95 | 1019.3 |
| 20260904045005 | 57 | 46 | 2.0 | 3.0 | 0.00 | 0.00 | 0.00 | 95 | 1019.4 |
| 20260904044753 | 57 | 46 | 2.0 | 2.0 | 0.00 | 0.00 | 0.00 | 94 | 1019.4 |
| 20260904044404 | 57 | 46 | 0.0 | 0.0 | 0.00 | 0.00 | 0.00 | 94 | 1019.4 |
| 20260904043954 | 57 | 46 | 0.0 | 0.0 | 0.00 | 0.00 | 0.00 | 95 | 1019.4 |
| 20260904043854 | 57 | 46 | 0.0 | 0.0 | 0.00 | 0.00 | 0.00 | 95 | 1019.5 |
| 20260904043436 | 57 | 46 | 0.0 | 0.0 | 0.00 | 0.00 | 0.00 | 95 | 1019.5 |
| 20260904043057 | 57 | 46 | 0.0 | 0.0 | 0.00 | 0.00 | 0.00 | 94 | 1019.5 |
| 20260904042920 | 57 | 46 | 0.0 | 0.0 | 0.00 | 0.00 | 0.00 | 94 | 1019.6 |
| 20260904042743 | 57 | 46 | 0.0 | 0.0 | 0.00 | 0.00 | 0.00 | 94 | 1019.5 |
| 20260904042636 | 57 | 46 | 0.0 | 0.0 | 0.00 | 0.00 | 0.00 | 94 | 1019.5 |
| 20260904042441 | 57 | 46 | 0.0 | 0.0 | 0.00 | 0.00 | 0.00 | 94 | 1019.6 |
| 20260904042104 | 57 | 46 | 0.0 | 0.0 | 0.00 | 0.00 | 0.00 | 94 | 1019.4 |
| 20260904041909 | 57 | 46 | 0.0 | 0.0 | 0.00 | 0.00 | 0.00 | 94 | 1019.4 |
| 20260904041853 | 78 | 53 | 0.0 | 2.0 | 0.00 | 0.00 | 0.00 | 53 | 1021.5 |
| 20260904041809 | 78 | 53 | 1.0 | 2.0 | 0.00 | 0.00 | 0.00 | 55 | 1021.5 |
| 20260904041753 | 80 | 148 | 0.0 | 0.0 | 0.00 | 0.00 | 0.00 | 51 | 1021.5 |
| 20260904041708 | 57 | 46 | 0.0 | 0.0 | 0.00 | 0.00 | 0.00 | 94 | 1019.5 |
| 20260904041541 | 57 | 46 | 0.0 | 0.0 | 0.00 | 0.00 | 0.00 | 94 | 1019.4 |
| 20260904041319 | 57 | 46 | 0.0 | 0.0 | 0.00 | 0.00 | 0.00 | 94 | 1019.4 |
| 20260904041227 | 57 | 46 | 0.0 | 0.0 | 0.00 | 0.00 | 0.00 | 94 | 1019.4 |
| 20260904041140 | 57 | 46 | 0.0 | 0.0 | 0.00 | 0.00 | 0.00 | 94 | 1019.4 |
| 20260904041016 | 57 | 46 | 0.0 | 0.0 | 0.00 | 0.00 | 0.00 | 94 | 1019.4 |
| 20260904040924 | 57 | 46 | 0.0 | 0.0 | 0.00 | 0.00 | 0.00 | 94 | 1019.4 |
| 20260904040823 | 58 | 46 | 0.0 | 0.0 | 0.00 | 0.00 | 0.00 | 94 | 1019.4 |
| 20260904040620 | 58 | 46 | 0.0 | 0.0 | 0.00 | 0.00 | 0.00 | 93 | 1019.5 |
| 20260904040218 | 58 | 46 | 0.0 | 0.0 | 0.00 | 0.00 | 0.00 | 94 | 1019.6 |
| 20260904040051 | 58 | 46 | 0.0 | 0.0 | 0.00 | 0.00 | 0.00 | 94 | 1019.6 |
| 20260904035709 | 58 | 46 | 0.0 | 0.0 | 0.00 | 0.00 | 0.00 | 94 | 1019.6 |
| 20260904035633 | 82 | 148 | 0.0 | 0.0 | 0.00 | 0.00 | 0.00 | 49 | 1021.4 |
| 20260904035544 | 58 | 46 | 0.0 | 0.0 | 0.00 | 0.00 | 0.00 | 94 | 1019.6 |
| 20260904035340 | 58 | 46 | 0.0 | 0.0 | 0.00 | 0.00 | 0.00 | 94 | 1019.6 |
| 20260904035255 | 58 | 46 | 0.0 | 0.0 | 0.00 | 0.00 | 0.00 | 94 | 1019.6 |
| 20260904035217 | 58 | 46 | 0.0 | 0.0 | 0.00 | 0.00 | 0.00 | 94 | 1019.6 |
| 20260904034817 | 82 | 148 | 0.0 | 0.0 | 0.00 | 0.00 | 0.00 | 49 | 1021.5 |
| 20260904034712 | 58 | 46 | 0.0 | 0.0 | 0.00 | 0.00 | 0.00 | 94 | 1019.7 |
| 20260904034554 | 58 | 46 | 0.0 | 0.0 | 0.00 | 0.00 | 0.00 | 94 | 1019.6 |
| 20260904034323 | 58 | 46 | 0.0 | 0.0 | 0.00 | 0.00 | 0.00 | 94 | 1019.7 |
| 20260904034217 | 58 | 46 | 0.0 | 0.0 | 0.00 | 0.00 | 0.00 | 93 | 1019.6 |
| 20260904034153 | 58 | 46 | 0.0 | 0.0 | 0.00 | 0.00 | 0.00 | 93 | 1019.6 |
| 20260904034040 | 58 | 46 | 0.0 | 0.0 | 0.00 | 0.00 | 0.00 | 93 | 1019.6 |
| 20260904033939 | 58 | 46 | 0.0 | 0.0 | 0.00 | 0.00 | 0.00 | 93 | 1019.7 |
| 20260904033824 | 58 | 46 | 0.0 | 0.0 | 0.00 | 0.00 | 0.00 | 93 | 1019.7 |
| 20260904033651 | 58 | 46 | 0.0 | 0.0 | 0.00 | 0.00 | 0.00 | 93 | 1019.7 |
| 20260904033104 | 58 | 46 | 0.0 | 0.0 | 0.00 | 0.00 | 0.00 | 93 | 1019.7 |
| 20260904032923 | 58 | 46 | 0.0 | 0.0 | 0.00 | 0.00 | 0.00 | 93 | 1019.8 |
| 20260904032829 | 58 | 46 | 0.0 | 0.0 | 0.00 | 0.00 | 0.00 | 93 | 1019.8 |
| 20260904032628 | 58 | 46 | 0.0 | 0.0 | 0.00 | 0.00 | 0.00 | 93 | 1019.8 |
| 20260904032551 | 58 | 46 | 0.0 | 0.0 | 0.00 | 0.00 | 0.00 | 93 | 1019.9 |
| 20260904031837 | 58 | 46 | 0.0 | 0.0 | 0.00 | 0.00 | 0.00 | 92 | 1019.9 |
| 20260904031541 | 58 | 46 | 0.0 | 0.0 | 0.00 | 0.00 | 0.00 | 92 | 1019.9 |
| 20260904031311 | 58 | 46 | 0.0 | 0.0 | 0.00 | 0.00 | 0.00 | 92 | 1020.0 |
| 20260904031126 | 58 | 46 | 0.0 | 0.0 | 0.00 | 0.00 | 0.00 | 91 | 1019.9 |
| 20260904031058 | 58 | 46 | 0.0 | 0.0 | 0.00 | 0.00 | 0.00 | 91 | 1019.9 |
| 20260904031005 | 58 | 46 | 0.0 | 0.0 | 0.00 | 0.00 | 0.00 | 92 | 1019.8 |
| 20260904030749 | 58 | 46 | 0.0 | 0.0 | 0.00 | 0.00 | 0.00 | 92 | 1019.8 |
| 20260904030645 | 58 | 46 | 0.0 | 0.0 | 0.00 | 0.00 | 0.00 | 92 | 1019.9 |
| 20260904030448 | 58 | 46 | 0.0 | 0.0 | 0.00 | 0.00 | 0.00 | 91 | 1020.0 |
| 20260904030350 | 58 | 46 | 0.0 | 0.0 | 0.00 | 0.00 | 0.00 | 91 | 1020.0 |
| 20260904030304 | 58 | 46 | 0.0 | 0.0 | 0.00 | 0.00 | 0.00 | 91 | 1019.9 |
| 20260904025851 | 58 | 46 | 0.0 | 0.0 | 0.00 | 0.00 | 0.00 | 91 | 1019.9 |
| 20260904025744 | 58 | 46 | 0.0 | 0.0 | 0.00 | 0.00 | 0.00 | 91 | 1020.0 |
| 20260904025307 | 58 | 46 | 0.0 | 0.0 | 0.00 | 0.00 | 0.00 | 91 | 1020.0 |
| 20260904025300 | 86 | 148 | 0.0 | 0.0 | 0.00 | 0.00 | 0.00 | 44 | 1021.3 |
| 20260904025114 | 58 | 46 | 0.0 | 0.0 | 0.00 | 0.00 | 0.00 | 91 | 1020.1 |
| 20260904025016 | 58 | 46 | 0.0 | 0.0 | 0.00 | 0.00 | 0.00 | 91 | 1020.1 |
| 20260904024937 | 58 | 46 | 0.0 | 0.0 | 0.00 | 0.00 | 0.00 | 91 | 1020.1 |
| 20260904024818 | 58 | 46 | 0.0 | 0.0 | 0.00 | 0.00 | 0.00 | 91 | 1020.0 |
| 20260904024725 | 58 | 46 | 0.0 | 0.0 | 0.00 | 0.00 | 0.00 | 91 | 1020.0 |
| 20260904024549 | 58 | 46 | 0.0 | 0.0 | 0.00 | 0.00 | 0.00 | 91 | 1020.0 |
| 20260904023941 | 58 | 46 | 0.0 | 0.0 | 0.00 | 0.00 | 0.00 | 91 | 1020.0 |
| 20260904023833 | 86 | 148 | 0.0 | 0.0 | 0.00 | 0.00 | 0.00 | 44 | 1021.3 |
| 20260904023755 | 87 | 148 | 0.0 | 2.0 | 0.00 | 0.00 | 0.00 | 43 | 1021.4 |
| 20260904023714 | 58 | 46 | 0.0 | 0.0 | 0.00 | 0.00 | 0.00 | 91 | 1020.0 |
| 20260904023617 | 58 | 46 | 0.0 | 0.0 | 0.00 | 0.00 | 0.00 | 91 | 1020.0 |
| 20260904023412 | 59 | 46 | 0.0 | 0.0 | 0.00 | 0.00 | 0.00 | 91 | 1020.0 |
| 20260904023301 | 59 | 46 | 0.0 | 0.0 | 0.00 | 0.00 | 0.00 | 91 | 1020.1 |
| 20260904022926 | 58 | 46 | 0.0 | 0.0 | 0.00 | 0.00 | 0.00 | 91 | 1020.0 |
| 20260904022729 | 58 | 46 | 0.0 | 0.0 | 0.00 | 0.00 | 0.00 | 90 | 1020.2 |
| 20260904022614 | 58 | 46 | 0.0 | 0.0 | 0.00 | 0.00 | 0.00 | 90 | 1020.1 |
| 20260904022601 | 58 | 46 | 0.0 | 0.0 | 0.00 | 0.00 | 0.00 | 90 | 1020.1 |
| 20260904022425 | 59 | 46 | 0.0 | 0.0 | 0.00 | 0.00 | 0.00 | 90 | 1020.1 |
| 20260904022353 | 59 | 46 | 0.0 | 0.0 | 0.00 | 0.00 | 0.00 | 90 | 1020.2 |
| 20260904022255 | 59 | 46 | 0.0 | 0.0 | 0.00 | 0.00 | 0.00 | 90 | 1020.1 |
| 20260904022128 | 59 | 46 | 0.0 | 0.0 | 0.00 | 0.00 | 0.00 | 90 | 1020.1 |
| 20260904022043 | 59 | 46 | 0.0 | 0.0 | 0.00 | 0.00 | 0.00 | 90 | 1020.1 |
| 20260904022025 | 59 | 46 | 0.0 | 0.0 | 0.00 | 0.00 | 0.00 | 90 | 1020.1 |
| 20260904021951 | 59 | 46 | 0.0 | 0.0 | 0.00 | 0.00 | 0.00 | 90 | 1020.1 |
| 20260904021858 | 59 | 46 | 0.0 | 0.0 | 0.00 | 0.00 | 0.00 | 90 | 1020.1 |
| 20260904021811 | 59 | 46 | 0.0 | 0.0 | 0.00 | 0.00 | 0.00 | 90 | 1020.1 |
| 20260904021143 | 59 | 46 | 0.0 | 0.0 | 0.00 | 0.00 | 0.00 | 90 | 1020.2 |
| 20260904021124 | 59 | 46 | 0.0 | 0.0 | 0.00 | 0.00 | 0.00 | 90 | 1020.2 |
| 20260904020753 | 59 | 46 | 0.0 | 0.0 | 0.00 | 0.00 | 0.00 | 89 | 1020.2 |
| 20260904020659 | 59 | 46 | 0.0 | 0.0 | 0.00 | 0.00 | 0.00 | 89 | 1020.3 |
| 20260904020644 | 59 | 46 | 0.0 | 0.0 | 0.00 | 0.00 | 0.00 | 89 | 1020.2 |
| 20260904020553 | 59 | 46 | 0.0 | 0.0 | 0.00 | 0.00 | 0.00 | 89 | 1020.2 |
| 20260904015935 | 60 | 46 | 0.0 | 0.0 | 0.00 | 0.00 | 0.00 | 90 | 1020.3 |
| 20260904015858 | 60 | 46 | 0.0 | 3.0 | 0.00 | 0.00 | 0.00 | 89 | 1020.3 |
| 20260904015219 | 60 | 46 | 0.0 | 5.0 | 0.00 | 0.00 | 0.00 | 89 | 1020.4 |
| 20260904015121 | 60 | 46 | 1.0 | 5.0 | 0.00 | 0.00 | 0.00 | 89 | 1020.3 |
| 20260904015056 | 60 | 46 | 1.0 | 5.0 | 0.00 | 0.00 | 0.00 | 89 | 1020.3 |
| 20260904015011 | 60 | 46 | 1.0 | 5.0 | 0.00 | 0.00 | 0.00 | 89 | 1020.3 |
| 20260904014838 | 60 | 45 | 2.0 | 5.0 | 0.00 | 0.00 | 0.00 | 88 | 1020.2 |
| 20260904014644 | 60 | 11 | 2.0 | 5.0 | 0.00 | 0.00 | 0.00 | 88 | 1020.3 |
| 20260904014455 | 60 | 346 | 2.0 | 4.0 | 0.00 | 0.00 | 0.00 | 87 | 1020.4 |
| 20260904014303 | 60 | 79 | 1.0 | 4.0 | 0.00 | 0.00 | 0.00 | 87 | 1020.4 |
| 20260904014231 | 60 | 42 | 1.0 | 4.0 | 0.00 | 0.00 | 0.00 | 87 | 1020.3 |
| 20260904014126 | 60 | 101 | 1.0 | 4.0 | 0.00 | 0.00 | 0.00 | 87 | 1020.5 |
| 20260904013346 | 61 | 36 | 0.0 | 0.0 | 0.00 | 0.00 | 0.00 | 87 | 1020.5 |
| 20260904013229 | 61 | 36 | 0.0 | 0.0 | 0.00 | 0.00 | 0.00 | 87 | 1020.6 |
| 20260904013153 | 61 | 36 | 0.0 | 0.0 | 0.00 | 0.00 | 0.00 | 87 | 1020.7 |
| 20260904012529 | 61 | 36 | 0.0 | 0.0 | 0.00 | 0.00 | 0.00 | 87 | 1020.7 |
| 20260904012424 | 61 | 36 | 0.0 | 0.0 | 0.00 | 0.00 | 0.00 | 87 | 1020.7 |
| 20260904012014 | 61 | 36 | 0.0 | 0.0 | 0.00 | 0.00 | 0.00 | 86 | 1020.7 |
| 20260904011919 | 62 | 36 | 0.0 | 0.0 | 0.00 | 0.00 | 0.00 | 86 | 1020.7 |
| 20260904011858 | 62 | 36 | 0.0 | 0.0 | 0.00 | 0.00 | 0.00 | 86 | 1020.7 |
| 20260904011834 | 62 | 36 | 0.0 | 0.0 | 0.00 | 0.00 | 0.00 | 86 | 1020.8 |
| 20260904010706 | 62 | 36 | 0.0 | 0.0 | 0.00 | 0.00 | 0.00 | 86 | 1020.7 |
| 20260904010614 | 87 | 90 | 1.0 | 3.0 | 0.00 | 0.00 | 0.00 | 40 | 1021.4 |
| 20260904010551 | 87 | 90 | 1.0 | 3.0 | 0.00 | 0.00 | 0.00 | 41 | 1021.4 |
| 20260904010509 | 62 | 36 | 0.0 | 0.0 | 0.00 | 0.00 | 0.00 | 86 | 1020.8 |
| 20260904010444 | 62 | 36 | 0.0 | 0.0 | 0.00 | 0.00 | 0.00 | 86 | 1020.8 |
| 20260904010408 | 62 | 36 | 0.0 | 0.0 | 0.00 | 0.00 | 0.00 | 86 | 1020.8 |
| 20260904010112 | 62 | 36 | 0.0 | 0.0 | 0.00 | 0.00 | 0.00 | 85 | 1020.7 |
| 20260904010007 | 62 | 36 | 0.0 | 0.0 | 0.00 | 0.00 | 0.00 | 85 | 1020.8 |
| 20260904005943 | 62 | 36 | 0.0 | 0.0 | 0.00 | 0.00 | 0.00 | 85 | 1020.7 |
| 20260904005756 | 62 | 36 | 0.0 | 0.0 | 0.00 | 0.00 | 0.00 | 85 | 1020.8 |
| 20260904005719 | 62 | 36 | 0.0 | 0.0 | 0.00 | 0.00 | 0.00 | 85 | 1020.8 |
| 20260904005351 | 62 | 36 | 0.0 | 0.0 | 0.00 | 0.00 | 0.00 | 85 | 1020.7 |
| 20260904005203 | 87 | 90 | 1.0 | 4.0 | 0.00 | 0.00 | 0.00 | 40 | 1021.4 |
| 20260904005108 | 62 | 36 | 0.0 | 0.0 | 0.00 | 0.00 | 0.00 | 85 | 1020.8 |
| 20260904004912 | 62 | 36 | 0.0 | 0.0 | 0.00 | 0.00 | 0.00 | 85 | 1020.8 |
| 20260904004856 | 87 | 119 | 3.0 | 4.0 | 0.00 | 0.00 | 0.00 | 40 | 1021.4 |
| 20260904004725 | 88 | 132 | 2.0 | 4.0 | 0.00 | 0.00 | 0.00 | 40 | 1021.4 |
| 20260904004720 | 88 | 125 | 2.0 | 4.0 | 0.00 | 0.00 | 0.00 | 40 | 1021.5 |
| 20260904004709 | 62 | 36 | 0.0 | 0.0 | 0.00 | 0.00 | 0.00 | 85 | 1020.7 |
| 20260904004646 | 88 | 155 | 3.0 | 7.0 | 0.00 | 0.00 | 0.00 | 39 | 1021.5 |
| 20260904004516 | 62 | 36 | 0.0 | 0.0 | 0.00 | 0.00 | 0.00 | 85 | 1020.7 |
| 20260904004450 | 62 | 36 | 0.0 | 0.0 | 0.00 | 0.00 | 0.00 | 85 | 1020.7 |
| 20260904004404 | 63 | 36 | 0.0 | 0.0 | 0.00 | 0.00 | 0.00 | 85 | 1020.9 |
| 20260904004233 | 63 | 36 | 0.0 | 0.0 | 0.00 | 0.00 | 0.00 | 85 | 1020.8 |
| 20260904004144 | 63 | 36 | 0.0 | 0.0 | 0.00 | 0.00 | 0.00 | 85 | 1020.9 |
| 20260904003715 | 63 | 36 | 0.0 | 0.0 | 0.00 | 0.00 | 0.00 | 85 | 1020.8 |
| 20260904003659 | 89 | 117 | 4.0 | 7.0 | 0.00 | 0.00 | 0.00 | 38 | 1021.5 |
| 20260904003621 | 89 | 134 | 2.0 | 4.0 | 0.00 | 0.00 | 0.00 | 38 | 1021.5 |
| 20260904003520 | 63 | 36 | 0.0 | 0.0 | 0.00 | 0.00 | 0.00 | 85 | 1020.8 |
| 20260904003452 | 63 | 36 | 0.0 | 0.0 | 0.00 | 0.00 | 0.00 | 85 | 1020.8 |
| 20260904003401 | 63 | 36 | 0.0 | 0.0 | 0.00 | 0.00 | 0.00 | 85 | 1020.8 |
| 20260904003226 | 63 | 36 | 0.0 | 0.0 | 0.00 | 0.00 | 0.00 | 85 | 1020.9 |
| 20260904003121 | 63 | 36 | 0.0 | 0.0 | 0.00 | 0.00 | 0.00 | 85 | 1020.8 |
| 20260904003107 | 63 | 36 | 0.0 | 0.0 | 0.00 | 0.00 | 0.00 | 84 | 1020.9 |
| 20260904002915 | 63 | 36 | 0.0 | 0.0 | 0.00 | 0.00 | 0.00 | 84 | 1020.9 |
| 20260904002824 | 63 | 36 | 0.0 | 0.0 | 0.00 | 0.00 | 0.00 | 84 | 1020.9 |
| 20260904002533 | 63 | 36 | 0.0 | 0.0 | 0.00 | 0.00 | 0.00 | 84 | 1020.8 |
| 20260904002415 | 63 | 36 | 0.0 | 0.0 | 0.00 | 0.00 | 0.00 | 84 | 1020.8 |
| 20260904002325 | 63 | 36 | 0.0 | 0.0 | 0.00 | 0.00 | 0.00 | 84 | 1020.9 |
| 20260904002310 | 63 | 36 | 0.0 | 0.0 | 0.00 | 0.00 | 0.00 | 84 | 1020.8 |
| 20260904002215 | 63 | 36 | 0.0 | 0.0 | 0.00 | 0.00 | 0.00 | 84 | 1020.9 |
| 20260904002123 | 63 | 36 | 0.0 | 0.0 | 0.00 | 0.00 | 0.00 | 84 | 1020.9 |
| 20260904002108 | 63 | 36 | 0.0 | 0.0 | 0.00 | 0.00 | 0.00 | 84 | 1020.9 |
| 20260904002043 | 63 | 36 | 0.0 | 0.0 | 0.00 | 0.00 | 0.00 | 84 | 1020.9 |
| 20260904001454 | 63 | 36 | 0.0 | 0.0 | 0.00 | 0.00 | 0.00 | 83 | 1021.0 |
| 20260904000819 | 63 | 36 | 0.0 | 0.0 | 0.00 | 0.00 | 0.00 | 82 | 1020.9 |
| 20260904000738 | 63 | 36 | 0.0 | 0.0 | 0.00 | 0.00 | 0.00 | 82 | 1021.0 |
| 20260904000314 | 64 | 36 | 0.0 | 0.0 | 0.00 | 0.00 | 0.00 | 82 | 1021.0 |
| 20260903235828 | 64 | 36 | 0.0 | 0.0 | 0.00 | 0.00 | 0.00 | 82 | 1021.1 |
| 20260903235805 | 64 | 36 | 0.0 | 0.0 | 0.00 | 0.00 | 0.00 | 82 | 1021.1 |
| 20260903235736 | 64 | 36 | 0.0 | 0.0 | 0.00 | 0.00 | 0.00 | 81 | 1021.0 |
| 20260903235230 | 64 | 36 | 0.0 | 0.0 | 0.00 | 0.00 | 0.00 | 81 | 1021.1 |
| 20260903234739 | 64 | 36 | 0.0 | 0.0 | 0.00 | 0.00 | 0.00 | 80 | 1021.1 |
| 20260903234704 | 64 | 36 | 0.0 | 0.0 | 0.00 | 0.00 | 0.00 | 80 | 1021.0 |
| 20260903234637 | 64 | 36 | 0.0 | 0.0 | 0.00 | 0.00 | 0.00 | 80 | 1021.1 |
| 20260903234500 | 64 | 36 | 0.0 | 0.0 | 0.00 | 0.00 | 0.00 | 80 | 1021.0 |
| 20260903234332 | 65 | 36 | 0.0 | 0.0 | 0.00 | 0.00 | 0.00 | 79 | 1021.0 |
| 20260903234116 | 65 | 36 | 0.0 | 0.0 | 0.00 | 0.00 | 0.00 | 78 | 1021.0 |
| 20260903233723 | 65 | 36 | 0.0 | 0.0 | 0.00 | 0.00 | 0.00 | 77 | 1021.0 |
| 20260903233657 | 65 | 36 | 0.0 | 0.0 | 0.00 | 0.00 | 0.00 | 77 | 1021.0 |
| 20260903233505 | 65 | 36 | 0.0 | 0.0 | 0.00 | 0.00 | 0.00 | 76 | 1021.0 |
| 20260903233140 | 65 | 36 | 0.0 | 0.0 | 0.00 | 0.00 | 0.00 | 76 | 1021.1 |
| 20260903233009 | 65 | 36 | 0.0 | 0.0 | 0.00 | 0.00 | 0.00 | 76 | 1021.1 |
| 20260903232647 | 65 | 36 | 0.0 | 0.0 | 0.00 | 0.00 | 0.00 | 76 | 1021.2 |
| 20260903232557 | 66 | 36 | 0.0 | 0.0 | 0.00 | 0.00 | 0.00 | 75 | 1021.1 |
| 20260903232415 | 66 | 36 | 0.0 | 0.0 | 0.00 | 0.00 | 0.00 | 75 | 1021.2 |
| 20260903232328 | 66 | 36 | 0.0 | 0.0 | 0.00 | 0.00 | 0.00 | 75 | 1021.1 |
| 20260903232306 | 66 | 36 | 0.0 | 0.0 | 0.00 | 0.00 | 0.00 | 75 | 1021.1 |
| 20260903232119 | 66 | 36 | 0.0 | 1.0 | 0.00 | 0.00 | 0.00 | 75 | 1021.2 |
| 20260903231802 | 65 | 36 | 0.0 | 1.0 | 0.00 | 0.00 | 0.00 | 75 | 1021.2 |
| 20260903231728 | 65 | 36 | 0.0 | 1.0 | 0.00 | 0.00 | 0.00 | 75 | 1021.2 |
| 20260903231247 | 66 | 36 | 0.0 | 1.0 | 0.00 | 0.00 | 0.00 | 75 | 1021.3 |
| 20260903231227 | 66 | 36 | 0.0 | 1.0 | 0.00 | 0.00 | 0.00 | 75 | 1021.2 |
| 20260903231031 | 66 | 36 | 0.0 | 1.0 | 0.00 | 0.00 | 0.00 | 74 | 1021.2 |
| 20260903230856 | 66 | 36 | 0.0 | 0.0 | 0.00 | 0.00 | 0.00 | 74 | 1021.2 |
| 20260903230059 | 66 | 36 | 0.0 | 0.0 | 0.00 | 0.00 | 0.00 | 74 | 1021.2 |
| 20260903225653 | 67 | 36 | 0.0 | 0.0 | 0.00 | 0.00 | 0.00 | 74 | 1021.3 |
| 20260903225546 | 67 | 36 | 0.0 | 0.0 | 0.00 | 0.00 | 0.00 | 74 | 1021.3 |
| 20260903225139 | 89 | 116 | 2.0 | 4.0 | 0.00 | 0.00 | 0.00 | 38 | 1021.6 |
| 20260903225125 | 89 | 71 | 3.0 | 4.0 | 0.00 | 0.00 | 0.00 | 38 | 1021.7 |
| 20260903225038 | 67 | 36 | 0.0 | 0.0 | 0.00 | 0.00 | 0.00 | 74 | 1021.4 |
| 20260903224926 | 67 | 36 | 0.0 | 0.0 | 0.00 | 0.00 | 0.00 | 74 | 1021.4 |
| 20260903224911 | 67 | 36 | 0.0 | 0.0 | 0.00 | 0.00 | 0.00 | 74 | 1021.4 |
| 20260903224742 | 67 | 36 | 0.0 | 0.0 | 0.00 | 0.00 | 0.00 | 74 | 1021.4 |
| 20260903224633 | 67 | 36 | 0.0 | 0.0 | 0.00 | 0.00 | 0.00 | 74 | 1021.4 |
| 20260903224601 | 67 | 36 | 0.0 | 1.0 | 0.00 | 0.00 | 0.00 | 74 | 1021.4 |
| 20260903224420 | 67 | 36 | 0.0 | 1.0 | 0.00 | 0.00 | 0.00 | 74 | 1021.4 |
| 20260903224345 | 67 | 36 | 0.0 | 1.0 | 0.00 | 0.00 | 0.00 | 74 | 1021.4 |
| 20260903224335 | 67 | 36 | 0.0 | 1.0 | 0.00 | 0.00 | 0.00 | 74 | 1021.4 |
| 20260903224247 | 67 | 36 | 0.0 | 1.0 | 0.00 | 0.00 | 0.00 | 74 | 1021.4 |
| 20260903224145 | 67 | 36 | 0.0 | 1.0 | 0.00 | 0.00 | 0.00 | 74 | 1021.4 |
| 20260903224128 | 67 | 36 | 0.0 | 1.0 | 0.00 | 0.00 | 0.00 | 74 | 1021.5 |
| 20260903224037 | 67 | 36 | 1.0 | 1.0 | 0.00 | 0.00 | 0.00 | 73 | 1021.4 |
| 20260903223933 | 67 | 36 | 1.0 | 1.0 | 0.00 | 0.00 | 0.00 | 74 | 1021.4 |
| 20260903223816 | 67 | 36 | 0.0 | 1.0 | 0.00 | 0.00 | 0.00 | 73 | 1021.4 |
| 20260903223751 | 67 | 36 | 0.0 | 1.0 | 0.00 | 0.00 | 0.00 | 73 | 1021.4 |
| 20260903223640 | 67 | 36 | 0.0 | 0.0 | 0.00 | 0.00 | 0.00 | 73 | 1021.5 |
| 20260903223530 | 67 | 36 | 0.0 | 0.0 | 0.00 | 0.00 | 0.00 | 73 | 1021.5 |
| 20260903223512 | 67 | 36 | 0.0 | 0.0 | 0.00 | 0.00 | 0.00 | 73 | 1021.4 |
| 20260903222539 | 68 | 36 | 0.0 | 0.0 | 0.00 | 0.00 | 0.00 | 72 | 1021.4 |
| 20260903221933 | 68 | 36 | 0.0 | 0.0 | 0.00 | 0.00 | 0.00 | 72 | 1021.4 |
| 20260903221506 | 68 | 36 | 0.0 | 0.0 | 0.00 | 0.00 | 0.00 | 72 | 1021.4 |
| 20260903221414 | 68 | 36 | 0.0 | 0.0 | 0.00 | 0.00 | 0.00 | 72 | 1021.4 |
| 20260903221359 | 69 | 36 | 0.0 | 0.0 | 0.00 | 0.00 | 0.00 | 72 | 1021.4 |
| 20260903221308 | 69 | 36 | 0.0 | 0.0 | 0.00 | 0.00 | 0.00 | 72 | 1021.4 |
| 20260903221152 | 69 | 36 | 0.0 | 0.0 | 0.00 | 0.00 | 0.00 | 71 | 1021.5 |
| 20260903221117 | 69 | 36 | 0.0 | 0.0 | 0.00 | 0.00 | 0.00 | 71 | 1021.5 |
| 20260903221019 | 69 | 36 | 0.0 | 0.0 | 0.00 | 0.00 | 0.00 | 72 | 1021.5 |
| 20260903220717 | 69 | 36 | 0.0 | 0.0 | 0.00 | 0.00 | 0.00 | 71 | 1021.5 |
| 20260903220617 | 69 | 36 | 0.0 | 0.0 | 0.00 | 0.00 | 0.00 | 71 | 1021.5 |
| 20260903220507 | 69 | 36 | 0.0 | 0.0 | 0.00 | 0.00 | 0.00 | 71 | 1021.5 |
| 20260903215621 | 69 | 36 | 0.0 | 0.0 | 0.00 | 0.00 | 0.00 | 71 | 1021.5 |
| 20260903215316 | 69 | 36 | 0.0 | 0.0 | 0.00 | 0.00 | 0.00 | 71 | 1021.4 |
| 20260903215011 | 69 | 36 | 0.0 | 1.0 | 0.00 | 0.00 | 0.00 | 71 | 1021.6 |
| 20260903214920 | 69 | 36 | 0.0 | 1.0 | 0.00 | 0.00 | 0.00 | 71 | 1021.6 |
| 20260903214552 | 69 | 36 | 0.0 | 2.0 | 0.00 | 0.00 | 0.00 | 70 | 1021.7 |
| 20260903213837 | 70 | 36 | 1.0 | 2.0 | 0.00 | 0.00 | 0.00 | 69 | 1021.7 |
| 20260903213710 | 70 | 36 | 1.0 | 2.0 | 0.00 | 0.00 | 0.00 | 69 | 1021.5 |
| 20260903213306 | 70 | 36 | 1.0 | 2.0 | 0.00 | 0.00 | 0.00 | 69 | 1021.7 |
| 20260903213233 | 70 | 36 | 1.0 | 1.0 | 0.00 | 0.00 | 0.00 | 70 | 1021.7 |
| 20260903213045 | 70 | 36 | 0.0 | 1.0 | 0.00 | 0.00 | 0.00 | 69 | 1021.7 |
| 20260903212921 | 71 | 36 | 0.0 | 0.0 | 0.00 | 0.00 | 0.00 | 69 | 1021.6 |
| 20260903212911 | 70 | 36 | 0.0 | 0.0 | 0.00 | 0.00 | 0.00 | 69 | 1021.7 |
| 20260903212825 | 71 | 36 | 0.0 | 0.0 | 0.00 | 0.00 | 0.00 | 69 | 1021.7 |
| 20260903212439 | 71 | 36 | 0.0 | 0.0 | 0.00 | 0.00 | 0.00 | 69 | 1021.8 |
| 20260903212404 | 71 | 36 | 0.0 | 0.0 | 0.00 | 0.00 | 0.00 | 69 | 1021.8 |
| 20260903212307 | 71 | 36 | 0.0 | 0.0 | 0.00 | 0.00 | 0.00 | 69 | 1021.9 |
| 20260903212206 | 71 | 36 | 0.0 | 0.0 | 0.00 | 0.00 | 0.00 | 68 | 1021.8 |
| 20260903212147 | 71 | 36 | 0.0 | 0.0 | 0.00 | 0.00 | 0.00 | 68 | 1021.9 |
| 20260903212055 | 71 | 36 | 0.0 | 0.0 | 0.00 | 0.00 | 0.00 | 68 | 1021.8 |
| 20260903211736 | 71 | 36 | 0.0 | 0.0 | 0.00 | 0.00 | 0.00 | 68 | 1021.8 |
| 20260903211652 | 71 | 36 | 0.0 | 0.0 | 0.00 | 0.00 | 0.00 | 67 | 1021.8 |
| 20260903211551 | 71 | 36 | 0.0 | 0.0 | 0.00 | 0.00 | 0.00 | 67 | 1021.8 |
| 20260903211502 | 72 | 36 | 0.0 | 0.0 | 0.00 | 0.00 | 0.00 | 66 | 1021.8 |
| 20260903211435 | 72 | 36 | 0.0 | 0.0 | 0.00 | 0.00 | 0.00 | 66 | 1021.9 |
| 20260903211321 | 72 | 36 | 0.0 | 0.0 | 0.00 | 0.00 | 0.00 | 66 | 1021.9 |
| 20260903211001 | 72 | 36 | 0.0 | 0.0 | 0.00 | 0.00 | 0.00 | 66 | 1021.9 |
| 20260903210905 | 72 | 36 | 0.0 | 0.0 | 0.00 | 0.00 | 0.00 | 66 | 1021.8 |
| 20260903210806 | 72 | 36 | 0.0 | 0.0 | 0.00 | 0.00 | 0.00 | 65 | 1021.8 |
| 20260903210706 | 72 | 36 | 0.0 | 0.0 | 0.00 | 0.00 | 0.00 | 65 | 1021.8 |
| 20260903210621 | 72 | 36 | 0.0 | 0.0 | 0.00 | 0.00 | 0.00 | 65 | 1021.8 |
| 20260903210538 | 73 | 36 | 0.0 | 1.0 | 0.00 | 0.00 | 0.00 | 65 | 1021.8 |
| 20260903210158 | 73 | 36 | 0.0 | 2.0 | 0.00 | 0.00 | 0.00 | 64 | 1021.8 |
| 20260903205740 | 73 | 36 | 0.0 | 2.0 | 0.00 | 0.00 | 0.00 | 64 | 1021.8 |
| 20260903205417 | 74 | 36 | 1.0 | 2.0 | 0.00 | 0.00 | 0.00 | 62 | 1021.8 |
| 20260903205249 | 74 | 36 | 1.0 | 2.0 | 0.00 | 0.00 | 0.00 | 59 | 1021.9 |
| 20260903205114 | 74 | 36 | 0.0 | 1.0 | 0.00 | 0.00 | 0.00 | 59 | 1021.8 |
| 20260903205014 | 74 | 36 | 0.0 | 0.0 | 0.00 | 0.00 | 0.00 | 58 | 1021.8 |
| 20260903204856 | 74 | 36 | 0.0 | 0.0 | 0.00 | 0.00 | 0.00 | 58 | 1021.7 |
| 20260903204833 | 74 | 36 | 0.0 | 0.0 | 0.00 | 0.00 | 0.00 | 57 | 1021.8 |
| 20260903204759 | 74 | 36 | 0.0 | 0.0 | 0.00 | 0.00 | 0.00 | 58 | 1021.7 |
| 20260903204714 | 74 | 36 | 0.0 | 0.0 | 0.00 | 0.00 | 0.00 | 58 | 1021.8 |
| 20260903204604 | 74 | 36 | 0.0 | 0.0 | 0.00 | 0.00 | 0.00 | 57 | 1021.7 |
| 20260903204528 | 74 | 36 | 0.0 | 1.0 | 0.00 | 0.00 | 0.00 | 57 | 1021.7 |
| 20260903204433 | 74 | 36 | 0.0 | 1.0 | 0.00 | 0.00 | 0.00 | 58 | 1021.8 |
| 20260903204137 | 74 | 36 | 0.0 | 1.0 | 0.00 | 0.00 | 0.00 | 57 | 1021.8 |
| 20260903204055 | 74 | 36 | 0.0 | 1.0 | 0.00 | 0.00 | 0.00 | 58 | 1021.7 |
| 20260903203958 | 74 | 36 | 0.0 | 1.0 | 0.00 | 0.00 | 0.00 | 58 | 1021.8 |
| 20260903203950 | 74 | 36 | 0.0 | 1.0 | 0.00 | 0.00 | 0.00 | 58 | 1021.8 |
| 20260903203849 | 74 | 36 | 0.0 | 1.0 | 0.00 | 0.00 | 0.00 | 59 | 1021.8 |
| 20260903203801 | 74 | 36 | 0.0 | 1.0 | 0.00 | 0.00 | 0.00 | 59 | 1021.7 |
| 20260903203733 | 74 | 36 | 0.0 | 1.0 | 0.00 | 0.00 | 0.00 | 59 | 1021.7 |
| 20260903203704 | 74 | 36 | 0.0 | 1.0 | 0.00 | 0.00 | 0.00 | 59 | 1021.8 |
| 20260903203041 | 74 | 36 | 0.0 | 2.0 | 0.00 | 0.00 | 0.00 | 60 | 1021.7 |
| 20260903202948 | 74 | 36 | 0.0 | 3.0 | 0.00 | 0.00 | 0.00 | 60 | 1021.7 |
| 20260903202859 | 74 | 36 | 0.0 | 3.0 | 0.00 | 0.00 | 0.00 | 60 | 1021.7 |
| 20260903202757 | 74 | 36 | 0.0 | 3.0 | 0.00 | 0.00 | 0.00 | 60 | 1021.6 |
| 20260903202735 | 74 | 36 | 0.0 | 3.0 | 0.00 | 0.00 | 0.00 | 60 | 1021.7 |
| 20260903202244 | 75 | 37 | 2.0 | 3.0 | 0.00 | 0.00 | 0.00 | 62 | 1021.7 |
| 20260903202213 | 75 | 38 | 2.0 | 3.0 | 0.00 | 0.00 | 0.00 | 62 | 1021.7 |
| 20260903202107 | 75 | 52 | 1.0 | 3.0 | 0.00 | 0.00 | 0.00 | 59 | 1021.6 |
| 20260903201941 | 75 | 53 | 1.0 | 2.0 | 0.00 | 0.00 | 0.00 | 58 | 1021.6 |
| 20260903200935 | 76 | 53 | 1.0 | 2.0 | 0.00 | 0.00 | 0.00 | 58 | 1021.6 |
| 20260903200908 | 76 | 53 | 1.0 | 2.0 | 0.00 | 0.00 | 0.00 | 58 | 1021.6 |
| 20260903200808 | 76 | 53 | 1.0 | 2.0 | 0.00 | 0.00 | 0.00 | 58 | 1021.6 |
| 20260903200630 | 76 | 53 | 1.0 | 2.0 | 0.00 | 0.00 | 0.00 | 58 | 1021.6 |
| 20260903200453 | 77 | 53 | 0.0 | 1.0 | 0.00 | 0.00 | 0.00 | 57 | 1021.6 |
| 20260903200348 | 77 | 53 | 0.0 | 1.0 | 0.00 | 0.00 | 0.00 | 55 | 1021.6 |
| 20260903200234 | 77 | 53 | 0.0 | 1.0 | 0.00 | 0.00 | 0.00 | 55 | 1021.6 |
| 20260903200211 | 77 | 53 | 0.0 | 1.0 | 0.00 | 0.00 | 0.00 | 55 | 1021.6 |
| 20260903200130 | 77 | 53 | 0.0 | 1.0 | 0.00 | 0.00 | 0.00 | 55 | 1021.5 |
| 20260903195720 | 78 | 53 | 0.0 | 2.0 | 0.00 | 0.00 | 0.00 | 54 | 1021.6 |
| 20260903195657 | 78 | 53 | 0.0 | 2.0 | 0.00 | 0.00 | 0.00 | 53 | 1021.5 |
| 20260903195205 | 78 | 53 | 1.0 | 2.0 | 0.00 | 0.00 | 0.00 | 55 | 1021.4 |
| 20260903194819 | 78 | 53 | 1.0 | 2.0 | 0.00 | 0.00 | 0.00 | 53 | 1021.5 |
| 20260903194651 | 79 | 53 | 0.0 | 1.0 | 0.00 | 0.00 | 0.00 | 53 | 1021.5 |
| 20260903194516 | 79 | 148 | 0.0 | 0.0 | 0.00 | 0.00 | 0.00 | 53 | 1021.5 |
| 20260903194459 | 79 | 148 | 0.0 | 0.0 | 0.00 | 0.00 | 0.00 | 51 | 1021.4 |
| 20260903194412 | 79 | 148 | 0.0 | 0.0 | 0.00 | 0.00 | 0.00 | 51 | 1021.4 |
| 20260903194313 | 79 | 148 | 0.0 | 0.0 | 0.00 | 0.00 | 0.00 | 51 | 1021.4 |
| 20260903194248 | 80 | 148 | 0.0 | 0.0 | 0.00 | 0.00 | 0.00 | 51 | 1021.5 |
| 20260903194200 | 80 | 148 | 0.0 | 0.0 | 0.00 | 0.00 | 0.00 | 51 | 1021.4 |
| 20260903194039 | 80 | 148 | 0.0 | 0.0 | 0.00 | 0.00 | 0.00 | 52 | 1021.4 |
| 20260903193952 | 80 | 148 | 0.0 | 0.0 | 0.00 | 0.00 | 0.00 | 51 | 1021.4 |
| 20260903193608 | 80 | 148 | 0.0 | 0.0 | 0.00 | 0.00 | 0.00 | 51 | 1021.5 |
| 20260903193449 | 81 | 148 | 0.0 | 0.0 | 0.00 | 0.00 | 0.00 | 50 | 1021.4 |
| 20260903193434 | 81 | 148 | 0.0 | 0.0 | 0.00 | 0.00 | 0.00 | 50 | 1021.4 |
| 20260903193345 | 81 | 148 | 0.0 | 0.0 | 0.00 | 0.00 | 0.00 | 50 | 1021.4 |
| 20260903193252 | 81 | 148 | 0.0 | 0.0 | 0.00 | 0.00 | 0.00 | 50 | 1021.4 |
| 20260903193144 | 81 | 148 | 0.0 | 0.0 | 0.00 | 0.00 | 0.00 | 50 | 1021.4 |
| 20260903192804 | 82 | 148 | 0.0 | 0.0 | 0.00 | 0.00 | 0.00 | 49 | 1021.4 |
| 20260903192411 | 82 | 148 | 0.0 | 0.0 | 0.00 | 0.00 | 0.00 | 49 | 1021.5 |
| 20260903192331 | 82 | 148 | 0.0 | 0.0 | 0.00 | 0.00 | 0.00 | 49 | 1021.4 |
| 20260903191921 | 83 | 148 | 0.0 | 0.0 | 0.00 | 0.00 | 0.00 | 49 | 1021.4 |
| 20260903191857 | 83 | 148 | 0.0 | 0.0 | 0.00 | 0.00 | 0.00 | 49 | 1021.5 |
| 20260903191747 | 83 | 148 | 0.0 | 0.0 | 0.00 | 0.00 | 0.00 | 48 | 1021.4 |
| 20260903191622 | 83 | 148 | 0.0 | 0.0 | 0.00 | 0.00 | 0.00 | 48 | 1021.4 |
| 20260903191520 | 83 | 148 | 0.0 | 0.0 | 0.00 | 0.00 | 0.00 | 48 | 1021.5 |
| 20260903191355 | 84 | 148 | 0.0 | 0.0 | 0.00 | 0.00 | 0.00 | 47 | 1021.5 |
| 20260903191305 | 84 | 148 | 0.0 | 0.0 | 0.00 | 0.00 | 0.00 | 47 | 1021.4 |
| 20260903191225 | 84 | 148 | 0.0 | 0.0 | 0.00 | 0.00 | 0.00 | 47 | 1021.4 |
| 20260903191113 | 84 | 148 | 0.0 | 0.0 | 0.00 | 0.00 | 0.00 | 47 | 1021.4 |
| 20260903191008 | 85 | 148 | 0.0 | 0.0 | 0.00 | 0.00 | 0.00 | 46 | 1021.3 |
| 20260903190914 | 85 | 148 | 0.0 | 0.0 | 0.00 | 0.00 | 0.00 | 46 | 1021.3 |
| 20260903190833 | 85 | 148 | 0.0 | 0.0 | 0.00 | 0.00 | 0.00 | 46 | 1021.4 |
| 20260903190752 | 85 | 148 | 0.0 | 0.0 | 0.00 | 0.00 | 0.00 | 46 | 1021.3 |
| 20260903190722 | 85 | 148 | 0.0 | 0.0 | 0.00 | 0.00 | 0.00 | 46 | 1021.4 |
| 20260903190609 | 85 | 148 | 0.0 | 0.0 | 0.00 | 0.00 | 0.00 | 46 | 1021.3 |
| 20260903190446 | 86 | 148 | 0.0 | 0.0 | 0.00 | 0.00 | 0.00 | 45 | 1021.4 |
| 20260903190334 | 86 | 148 | 0.0 | 0.0 | 0.00 | 0.00 | 0.00 | 45 | 1021.3 |
| 20260903185711 | 86 | 148 | 0.0 | 0.0 | 0.00 | 0.00 | 0.00 | 44 | 1021.3 |
| 20260903185616 | 87 | 148 | 0.0 | 0.0 | 0.00 | 0.00 | 0.00 | 44 | 1021.4 |
| 20260903185306 | 87 | 148 | 0.0 | 2.0 | 0.00 | 0.00 | 0.00 | 43 | 1021.4 |
| 20260903185155 | 87 | 148 | 0.0 | 2.0 | 0.00 | 0.00 | 0.00 | 43 | 1021.3 |
| 20260903185052 | 87 | 148 | 0.0 | 3.0 | 0.00 | 0.00 | 0.00 | 43 | 1021.3 |
| 20260903185022 | 87 | 148 | 0.0 | 3.0 | 0.00 | 0.00 | 0.00 | 43 | 1021.3 |
| 20260903184941 | 87 | 148 | 0.0 | 3.0 | 0.00 | 0.00 | 0.00 | 42 | 1021.3 |
| 20260903184835 | 87 | 148 | 0.0 | 3.0 | 0.00 | 0.00 | 0.00 | 42 | 1021.4 |
| 20260903184723 | 87 | 148 | 1.0 | 3.0 | 0.00 | 0.00 | 0.00 | 41 | 1021.4 |
| 20260903184602 | 87 | 148 | 1.0 | 3.0 | 0.00 | 0.00 | 0.00 | 41 | 1021.3 |
| 20260903184435 | 87 | 116 | 1.0 | 3.0 | 0.00 | 0.00 | 0.00 | 40 | 1021.3 |